GFSSE_con_3kmhel_000.txt.gz
Helicity
103 92 80 81 66 71 65 59 73 68 51 36 28 43 92 91 74 57 47 30 20 24 42 63 62 80 89 102 83 83 64 57 45 42 46 56 43 36 36 82 66 57 50
139 69 58 50 58 62 73 74 80 63 51 30 23 41 62 68 62 27 31 24 31 35 56 60 76 82 100 101 67 62 64 53 55 57 56 50 27 29 28 63 44 56 53
86 65 26 38 49 65 76 86 70 52 42 27 16 34 43 40 26 22 34 37 37 45 47 49 42 55 73 110 93 76 65 61 66 79 49 69 53 55 64 60 37 31 27
74 41 34 32 57 58 70 67 52 51 44 32 27 36 24 23 30 23 45 41 38 35 40 46 51 60 63 74 66 74 74 72 83 87 84 108 99 69 74 61 62 71 62
37 31 117 66 46 71 84 70 52 43 49 35 33 19 23 34 14 22 29 47 49 40 34 42 44 56 58 59 58 53 67 58 70 79 111 88 101 105 75 75 72 83 98
32 124 105 92 65 78 74 74 65 48 43 39 28 17 23 35 40 35 33 49 67 39 33 31 34 37 41 42 37 47 47 53 53 56 69 75 99 79 72 80 73 79 99
57 119 105 118 81 68 71 78 72 63 47 40 30 33 38 30 55 44 52 49 48 38 32 31 40 36 30 21 23 20 29 36 47 55 51 53 68 60 68 61 65 64 77
93 100 80 87 70 71 72 73 59 62 55 56 41 27 32 25 64 86 71 59 52 53 45 45 40 22 8 2 8 9 26 36 36 38 40 54 29 49 52 52 57 57 61
88 81 78 63 60 58 44 57 64 70 67 76 76 45 38 18 25 49 74 54 38 34 32 22 6 -10 -21 -25 -17 -4 22 30 46 45 18 40 33 12 24 30 37 48 55
77 56 93 88 76 60 54 69 92 82 90 91 81 71 47 8 3 23 37 39 33 21 7 -0 -12 -19 -23 -24 -23 -13 6 36 72 58 37 42 -1 -12 2 13 18 24 38
55 53 57 83 104 75 81 101 95 112 110 99 82 69 67 39 44 28 60 62 23 -0 -10 -11 -16 -13 -3 10 -1 -13 22 97 74 73 95 79 52 26 13 14 14 10 12
69 46 53 80 104 69 92 137 78 107 100 106 80 114 81 66 68 62 39 34 19 2 9 -5 -1 4 22 53 53 25 101 127 103 115 138 105 85 59 63 59 54 51 55
76 87 62 73 97 100 98 99 76 106 70 76 87 99 92 95 77 76 71 66 50 46 59 34 52 69 66 68 80 76 94 119 136 145 149 126 115 78 67 69 73 68 68
110 113 102 83 90 97 121 97 65 97 87 80 85 88 91 95 89 73 67 64 60 53 45 41 49 47 64 71 77 87 90 117 145 169 168 135 140 116 84 83 89 80 60
118 135 118 103 108 95 125 100 86 99 103 90 114 88 89 89 85 79 68 56 65 77 66 70 61 62 63 62 60 60 47 53 95 125 157 114 122 141 115 88 71 60 52
122 135 112 122 117 126 132 141 130 128 138 136 123 95 99 86 88 81 73 103 93 77 75 79 76 62 53 46 40 39 59 58 51 56 75 91 80 109 116 86 63 54 44
267 239 179 154 127 151 131 165 192 189 181 163 138 127 125 135 123 108 115 106 97 101 110 101 91 79 69 57 47 69 86 79 84 102 105 104 121 115 132 105 90 49 45
192 222 165 146 156 166 165 169 194 186 178 162 181 209 183 160 169 200 164 161 150 128 131 107 86 72 56 48 68 60 49 48 63 58 51 115 128 100 90 92 60 52 46
208 161 141 113 143 173 217 272 261 244 284 309 274 230 200 208 243 204 196 169 170 153 126 98 77 53 29 38 47 45 72 48 42 114 150 144 96 81 72 86 51 52 51
152 136 151 145 163 219 211 248 313 303 294 269 235 222 220 223 227 218 186 150 137 122 101 78 67 59 55 46 54 62 54 83 92 89 78 76 62 89 99 106 92 99 64
138 135 137 132 110 106 168 184 201 214 214 229 232 226 219 205 185 171 141 115 91 88 69 70 36 36 34 75 63 62 65 80 98 87 57 74 91 79 96 77 42 21 33
190 206 210 219 200 205 194 183 176 164 172 164 175 180 156 148 129 92 73 59 57 53 64 52 41 29 49 67 37 49 5 35 91 58 50 47 47 43 42 54 50 55 72
221 205 189 178 182 186 197 179 131 124 138 141 114 91 82 81 76 58 43 32 28 28 42 57 57 65 57 75 76 49 2 3 27 32 56 40 50 71 68 82 80 96 83
215 189 168 140 120 92 84 66 107 96 99 61 41 28 46 65 59 26 5 5 35 51 68 59 78 74 77 60 60 69 62 69 49 41 86 82 96 79 81 84 75 83 94
217 192 177 184 183 149 130 121 114 103 67 32 26 28 32 40 47 16 7 24 56 75 84 82 73 70 71 73 73 78 80 92 85 94 80 99 95 92 122 93 136 123 107
201 180 154 161 156 147 150 147 135 112 75 54 51 52 60 58 53 32 35 66 89 90 84 78 72 70 66 75 87 98 105 114 101 99 112 113 115 133 147 176 151 131 120

GFSSE_con_3kmhel_003.txt.gz
Helicity
14 60 86 79 95 81 83 104 93 85 55 37 44 61 71 75 74 58 44 64 40 34 43 66 87 98 96 79 71 59 59 63 35 43 47 57 75 66 55 92 110 93 65
72 57 68 58 65 55 80 108 111 100 70 51 40 50 85 73 60 41 34 47 47 27 37 44 53 52 62 70 58 58 51 50 51 61 58 51 57 71 61 100 72 73 68
56 38 34 40 49 66 97 123 128 108 81 57 36 46 51 41 51 26 24 32 60 43 35 29 39 26 38 54 71 84 61 49 49 54 54 66 49 62 68 108 89 79 72
40 22 6 14 52 67 89 94 104 105 90 74 47 47 30 26 29 22 37 47 39 36 37 28 27 34 37 46 65 48 42 51 41 21 34 56 29 66 68 81 78 88 97
33 15 4 62 51 57 98 99 97 89 75 73 60 16 14 25 13 10 28 35 50 57 40 31 18 21 26 27 22 14 17 44 54 1 18 18 37 67 67 69 75 76 86
48 42 49 66 64 94 79 88 87 78 65 46 44 22 8 -3 6 -2 39 44 68 58 42 17 -3 0 -1 -1 -2 -3 -1 6 33 20 -4 4 33 39 57 56 59 57 67
96 110 90 98 114 90 73 78 76 75 71 51 35 31 27 18 32 34 60 59 83 40 15 -3 -8 -11 -21 -20 -22 -18 -11 -3 15 17 5 -8 22 17 26 38 41 39 45
120 104 103 119 108 78 67 72 69 73 72 65 46 34 26 15 13 15 52 40 31 4 1 -8 -9 -17 -26 -30 -27 -21 -10 8 13 9 10 9 -21 -12 -5 10 16 21 28
109 91 92 89 76 72 65 45 57 64 84 101 90 59 47 16 7 14 23 14 2 0 -7 -8 -21 -25 -24 -21 -21 -14 0 11 42 51 23 18 -25 -46 -32 -21 -9 -1 4
105 85 80 79 65 58 46 47 66 66 94 115 106 80 60 31 13 8 8 2 -5 -13 -19 -21 -17 -17 -18 -16 -14 -9 -7 7 49 69 62 45 -11 -16 -13 -13 -3 5 5
78 94 82 78 54 44 33 48 58 49 87 102 89 67 64 38 20 26 25 37 29 9 -13 -12 -18 -21 -15 -5 -13 -16 -4 80 95 100 97 51 8 6 4 13 24 15 15
70 86 107 100 54 30 41 75 61 56 70 74 61 48 52 33 29 54 48 37 25 18 17 6 2 12 26 70 67 41 78 87 107 127 140 88 53 39 21 32 50 53 41
83 80 98 122 75 70 89 90 58 67 71 68 53 35 40 54 42 48 43 45 52 34 43 38 40 49 55 65 66 89 98 116 143 158 153 142 117 73 46 50 60 73 88
99 77 91 126 139 106 129 91 78 93 82 80 51 67 60 65 54 46 51 55 51 39 33 44 43 35 38 46 45 22 30 50 76 85 80 63 75 49 29 26 34 39 49
95 104 109 156 186 161 160 125 132 125 133 119 113 91 90 92 77 71 83 82 79 76 75 83 99 81 57 45 33 38 39 46 59 80 71 33 41 47 50 47 35 20 18
119 152 141 166 188 221 187 146 152 179 172 162 139 109 106 102 96 100 105 106 119 128 150 135 109 85 60 44 33 39 52 49 53 46 47 69 94 99 114 93 56 34 15
210 194 162 162 201 226 198 172 181 222 226 183 164 179 175 135 151 189 188 203 194 170 149 124 111 89 74 69 61 67 55 36 37 38 60 122 117 86 102 132 160 84 49
245 256 233 201 227 223 168 172 193 225 244 259 260 248 253 267 259 233 195 183 181 180 141 124 97 69 70 73 49 43 47 36 46 109 110 90 116 101 93 119 135 135 144
166 190 224 271 259 229 221 281 337 314 297 277 257 261 255 263 238 213 177 165 168 151 130 104 91 78 54 39 31 29 39 54 90 81 94 90 84 69 63 80 115 108 101
126 160 189 291 311 340 349 368 344 316 277 254 260 244 254 232 214 174 145 136 127 106 100 92 68 56 21 21 34 35 45 61 55 73 68 60 53 37 61 54 27 24 53
145 172 199 256 286 318 296 284 256 231 248 251 242 229 210 164 143 122 94 85 71 63 55 44 12 25 38 48 26 54 46 56 75 67 97 80 63 69 46 32 7 15 54
133 144 181 210 240 211 181 166 188 191 195 170 158 160 135 119 97 74 53 39 47 31 37 44 36 27 36 45 14 14 3 12 71 71 49 52 36 44 43 67 59 80 60
196 186 198 206 218 172 157 159 169 170 142 124 113 103 92 93 76 58 47 24 10 17 31 38 52 55 42 51 76 47 9 25 42 36 28 45 36 57 54 54 71 55 72
197 193 204 204 181 145 113 92 69 64 82 76 71 59 70 80 71 48 29 11 7 15 50 47 65 61 68 69 69 96 94 90 62 66 112 61 70 69 71 72 67 77 45
213 205 193 178 143 101 95 80 90 105 108 93 92 93 92 75 55 37 24 15 21 33 56 78 86 92 83 80 88 81 94 99 109 133 98 118 108 118 118 115 110 82 83
253 235 239 235 187 160 141 118 126 140 142 150 132 114 69 38 41 48 42 37 40 55 69 78 83 92 87 91 96 98 122 119 113 134 121 115 126 139 159 161 136 124 81

GFSSE_con_3kmhel_006.txt.gz
Helicity
-12 18 60 47 36 120 122 120 114 108 86 83 78 75 90 84 93 74 51 62 47 44 42 50 70 82 94 75 60 46 51 57 29 13 15 27 38 55 61 52 109 78 67
59 8 75 54 71 84 95 122 137 128 98 83 84 106 127 90 67 54 39 42 35 43 36 30 40 45 42 42 36 34 34 48 47 27 27 25 28 17 31 55 77 76 74
65 17 40 24 26 50 94 118 120 128 106 94 79 62 87 81 69 49 42 50 46 31 22 12 8 8 -1 9 20 38 61 54 38 11 10 22 11 -20 9 51 42 52 60
49 2 0 13 16 59 98 91 104 107 85 73 56 42 48 53 48 19 27 23 23 37 27 13 6 8 5 8 12 8 24 35 21 1 3 11 1 -9 5 34 13 30 56
31 1 -2 14 24 53 71 70 89 85 69 51 32 8 -34 -7 13 40 30 19 40 55 41 17 7 2 2 -1 -6 -12 -14 -7 13 5 7 8 -2 -7 4 13 19 12 30
29 8 17 37 39 60 64 70 84 73 52 42 23 2 -21 -44 -38 29 36 35 70 55 24 13 6 2 -9 -14 -14 -18 -26 -20 2 14 6 7 18 -19 -7 20 14 11 20
31 27 45 56 63 89 68 69 69 67 54 42 19 20 2 -18 -11 3 26 35 70 40 11 8 7 5 -1 -8 -15 -18 -18 -10 15 32 22 13 10 1 -17 -14 5 3 7
79 56 58 70 96 93 65 63 62 59 63 53 30 28 13 -4 -9 -12 9 20 13 0 -3 -5 1 0 4 1 -2 -4 -4 -1 16 22 21 23 -1 -13 -25 -28 -27 -2 -1
107 113 94 94 80 75 61 50 53 43 53 83 61 44 33 12 -11 -9 8 5 -3 -4 -1 1 -6 -10 -10 -11 -6 -4 7 7 27 43 37 47 2 -29 -23 -17 -16 -5 4
98 108 102 93 78 70 54 36 36 48 78 83 78 54 34 16 -3 -9 3 -2 1 4 -2 -8 -12 -22 -25 -22 -17 -16 -8 0 38 62 81 80 13 -2 4 5 3 1 2
83 92 92 83 73 62 50 26 36 48 67 81 71 42 34 14 1 3 10 9 23 9 -6 -11 -10 -6 5 16 13 9 17 64 59 78 105 81 51 46 42 23 23 15 20
97 79 102 81 58 63 43 44 37 49 55 54 47 30 35 31 20 31 38 37 23 18 12 9 7 13 23 58 52 29 54 53 70 79 92 57 61 57 49 40 41 38 33
82 125 101 83 65 80 66 73 61 63 66 44 40 40 37 47 41 45 43 33 33 27 30 28 28 29 23 29 33 25 22 24 47 63 64 24 18 31 36 40 32 27 23
90 94 125 95 92 94 99 99 90 78 82 65 51 45 66 54 61 54 58 44 51 47 48 49 66 86 87 65 46 35 25 33 42 50 46 46 46 64 71 65 60 67 54
98 85 133 143 131 153 156 166 127 103 106 88 94 75 80 97 96 89 94 109 103 99 119 122 109 87 79 64 49 46 51 62 73 76 71 61 69 102 120 136 128 114 79
127 122 138 171 199 222 232 212 195 147 137 153 142 131 129 115 127 175 167 160 142 124 120 110 99 88 78 58 60 68 63 57 64 67 69 91 147 181 208 215 212 205 221
145 158 176 206 243 252 249 249 212 172 210 214 211 200 185 177 232 203 178 177 143 130 125 106 105 98 94 89 78 68 55 68 82 109 131 138 147 165 198 213 225 260 224
201 175 197 216 229 250 252 237 231 287 306 271 249 222 232 220 196 195 178 159 133 125 113 107 103 115 115 79 51 51 65 87 112 133 126 134 135 114 137 172 198 195 202
198 230 212 222 234 268 290 285 295 329 322 265 269 240 221 203 177 181 155 134 124 116 119 115 122 92 60 58 55 55 69 94 85 123 108 126 99 88 102 112 111 108 140
211 216 215 256 333 347 308 331 343 314 283 246 225 228 206 178 166 142 127 116 98 95 105 95 76 68 49 45 45 76 75 95 85 138 95 143 76 103 86 55 16 55 111
189 226 278 383 368 355 304 319 290 230 217 226 235 215 193 168 148 127 99 92 81 73 42 32 33 56 58 48 34 65 77 90 133 96 94 84 99 128 51 76 69 81 65
168 216 294 355 311 278 270 230 220 186 190 209 202 202 172 156 127 108 93 75 66 44 53 54 49 40 36 34 12 11 45 68 111 61 73 59 106 44 88 67 88 81 97
181 192 217 227 230 221 241 255 252 242 221 192 176 172 148 131 119 96 75 53 45 35 37 30 41 43 37 40 66 44 39 60 51 45 34 66 51 89 73 87 93 102 104
162 172 188 187 186 178 183 187 167 135 132 97 118 124 138 129 105 80 60 43 35 22 34 28 44 44 49 60 50 105 105 118 86 75 97 52 85 79 101 127 135 123 121
200 192 179 183 162 138 145 140 118 125 122 125 138 147 137 117 92 66 47 32 28 27 30 50 71 93 71 73 78 80 92 116 118 153 120 123 105 111 139 163 156 152 148
244 228 208 209 160 124 129 106 114 143 150 164 136 133 110 91 78 63 48 40 37 42 52 65 80 99 98 99 99 107 109 112 111 126 143 153 162 179 211 202 184 160 155

GFSSE_con_3kmhel_009.txt.gz
Helicity
-46 -45 -7 22 60 84 94 96 87 87 72 55 57 90 108 122 126 71 61 64 44 29 20 17 44 51 59 26 42 40 49 52 39 12 7 13 27 35 45 23 27 40 26
29 -31 -3 4 32 80 82 91 89 98 93 71 49 72 83 80 81 73 61 53 36 38 26 10 8 28 34 40 39 27 26 19 36 40 23 25 19 16 14 9 32 27 22
56 -5 4 -7 45 57 85 97 86 96 89 71 63 64 79 61 58 41 32 42 28 30 28 19 16 17 18 17 27 31 30 33 41 27 33 31 26 7 -0 -3 15 6 2
50 14 9 7 32 47 79 76 75 78 78 70 48 24 23 25 44 22 11 28 18 31 32 28 23 19 16 7 10 8 8 27 28 35 48 37 32 18 10 -16 17 8 6
43 20 2 4 17 50 70 64 63 64 59 57 30 7 -22 -8 1 23 46 65 51 46 40 32 26 19 20 14 17 10 11 11 33 37 32 31 28 24 18 8 15 19 21
37 23 8 13 27 68 59 58 62 60 50 37 20 -5 -36 -28 -33 -5 18 45 81 55 33 24 23 20 19 11 6 6 11 11 30 32 30 24 27 8 10 -2 6 17 16
33 26 21 28 38 62 59 58 63 57 45 27 25 7 -13 -36 -28 -8 12 22 67 34 28 22 22 25 24 18 15 8 11 13 38 46 38 29 30 11 3 1 -3 1 -3
58 44 41 44 44 62 71 60 59 54 33 32 26 21 4 -34 -36 -25 21 36 21 8 -1 -1 -0 -1 -5 -6 -4 -7 -6 4 24 36 38 45 17 -1 -4 -5 -5 -12 6
65 78 56 58 59 81 70 62 49 32 19 54 26 25 11 7 -22 -17 12 17 6 -3 1 2 -3 -8 -9 -12 -10 -8 1 8 28 52 57 78 38 15 2 -3 -6 -10 -10
77 80 80 86 89 74 60 59 36 -1 24 69 32 23 17 -11 -12 -10 1 -1 -2 -4 -4 -8 -8 -7 -5 -2 -1 -0 6 14 41 53 69 98 57 50 40 25 19 11 6
79 87 96 94 99 81 67 47 33 23 61 64 38 26 14 5 4 6 13 3 -2 1 -3 -4 -3 -1 4 11 15 14 6 31 26 46 54 46 38 40 45 33 21 15 24
70 83 94 93 104 100 71 64 63 60 64 64 41 23 27 29 33 28 28 15 12 12 8 12 6 15 26 28 31 34 35 34 32 41 50 46 62 71 76 74 55 48 46
69 100 92 95 102 111 91 90 86 86 84 65 35 36 28 46 59 58 52 53 52 39 38 32 37 47 73 70 57 44 41 44 41 45 52 57 64 67 76 83 104 107 87
113 96 106 104 115 107 102 109 107 108 96 77 61 55 56 69 58 64 69 73 72 59 71 75 77 82 77 68 57 62 61 62 60 63 74 101 108 108 103 117 126 159 164
70 120 144 140 132 126 124 122 133 113 108 94 85 71 96 86 92 99 108 109 115 96 97 96 95 82 65 64 71 69 75 84 90 86 95 137 175 191 194 186 213 228 248
66 116 200 173 161 165 154 142 129 120 121 130 139 136 121 108 129 141 145 129 110 103 96 83 73 68 60 52 67 77 72 71 89 125 135 174 242 258 241 251 240 241 243
130 153 214 237 204 200 200 195 140 139 186 206 194 179 157 167 172 155 137 117 119 108 90 83 85 80 79 90 79 66 77 112 145 163 171 187 192 231 235 247 238 239 238
117 159 215 252 228 243 235 212 241 240 255 241 227 192 173 169 154 154 145 136 109 104 88 79 76 79 81 50 50 83 78 116 163 180 173 170 145 152 168 218 204 200 202
122 197 278 291 263 270 285 313 313 322 295 259 235 198 177 168 149 151 138 121 106 99 100 84 74 52 26 54 65 87 90 119 144 129 153 141 131 135 143 174 167 169 180
130 202 310 327 320 343 364 340 328 318 306 272 240 206 196 182 167 149 135 125 101 89 86 74 68 46 34 37 49 79 89 112 115 140 127 104 119 120 135 104 88 113 169
171 225 320 372 363 394 371 351 295 256 244 249 233 218 216 187 166 148 115 101 78 64 46 49 42 68 49 49 38 78 93 114 123 141 75 88 77 118 125 71 104 107 98
168 228 336 398 437 404 287 249 230 223 230 235 222 240 208 177 148 126 95 79 76 56 61 57 57 44 43 41 20 26 60 76 122 44 101 91 97 73 54 72 85 110 121
193 258 318 386 399 299 252 294 332 289 270 241 229 213 181 158 137 113 95 70 56 40 44 42 41 45 43 45 61 41 47 76 68 37 84 94 59 54 65 79 91 123 138
200 243 261 271 253 208 227 245 218 208 184 146 152 154 161 152 135 113 89 58 42 32 47 35 43 37 35 50 56 103 87 94 101 86 77 78 38 52 51 81 101 121 128
217 219 214 208 204 201 219 232 225 207 158 163 172 173 170 152 135 108 80 61 51 39 37 54 59 74 70 80 83 84 88 100 92 131 112 76 52 53 63 77 109 129 138
236 232 217 208 192 195 204 198 188 174 175 173 146 158 137 129 120 110 95 78 65 57 59 66 75 89 99 110 109 104 97 96 105 102 125 117 110 110 127 135 116 142 147

GFSSE_con_3kmhel_012.txt.gz
Helicity
-39 -40 -30 22 35 65 71 76 58 46 53 42 36 54 78 89 82 57 34 32 23 10 20 32 37 55 34 23 40 44 42 39 46 40 39 34 34 32 24 16 8 29 13
24 -32 -56 -18 51 60 71 70 57 55 61 43 39 59 63 67 56 51 30 25 23 31 25 17 17 20 33 51 48 42 38 43 39 34 46 53 53 41 36 19 53 25 15
34 -13 -58 -22 29 59 79 76 67 60 62 53 32 33 66 37 32 23 22 15 17 21 23 26 16 19 19 20 31 36 41 36 30 42 64 57 59 59 48 24 41 33 23
46 12 -18 -13 51 57 81 79 71 61 54 51 32 33 45 21 22 18 36 29 10 25 28 31 27 32 29 20 26 23 29 33 43 49 53 53 55 55 54 42 29 32 28
33 25 7 13 55 75 71 63 62 55 53 50 35 21 7 4 14 33 51 51 43 41 32 30 34 31 32 33 31 31 41 47 53 56 52 50 50 44 52 42 36 32 37
32 37 30 31 43 65 63 58 51 46 40 39 27 -8 -27 -0 -21 -22 -20 40 48 44 30 27 28 29 36 23 16 13 14 21 42 48 44 42 48 27 22 23 18 25 18
24 31 38 39 34 66 57 48 46 41 29 23 13 -3 -27 -34 -32 -31 -1 30 40 24 12 11 12 16 20 18 11 5 7 29 41 42 40 40 38 20 17 12 1 -0 16
47 29 30 35 49 65 59 49 44 32 16 7 2 -4 -22 -72 -59 -18 7 46 32 13 5 1 4 7 5 5 9 9 18 20 33 43 41 51 32 12 8 3 1 -5 -13
49 49 35 36 49 64 61 62 47 22 4 27 8 -10 -17 -51 -66 -33 16 28 13 3 -5 -8 -7 -0 7 9 13 14 21 24 42 56 62 76 47 28 19 14 9 8 -4
51 52 53 51 59 80 81 66 48 10 -1 45 27 1 -4 -30 -50 -28 1 5 5 3 -1 2 5 4 6 11 13 22 26 19 30 36 47 59 41 31 24 26 18 17 16
59 55 67 72 74 87 90 65 46 8 23 63 39 24 16 -0 -9 -14 -1 9 13 16 16 14 7 15 32 39 49 55 54 40 44 40 45 38 51 59 65 69 52 29 22
63 58 66 63 82 89 84 81 68 57 71 66 50 41 36 38 31 13 19 21 31 34 26 30 45 54 55 52 62 66 45 53 54 58 62 82 77 71 72 79 78 84 83
99 100 89 83 107 114 101 98 95 90 83 76 60 44 54 61 58 53 52 53 54 60 57 71 84 85 69 59 59 54 55 58 54 58 69 108 94 89 80 87 108 172 205
93 113 103 107 133 131 125 105 103 106 93 83 74 61 73 73 74 58 71 78 88 86 105 98 82 81 75 60 63 64 63 60 66 78 108 163 171 150 131 144 221 219 228
81 119 136 159 147 147 143 122 121 111 100 92 92 87 88 97 82 84 95 105 109 100 98 89 80 80 70 67 65 72 86 94 117 121 137 198 210 206 263 238 228 215 231
84 94 171 185 195 192 169 144 120 124 111 105 112 111 114 111 108 128 146 119 118 97 86 77 67 67 57 53 68 83 85 85 115 140 152 165 221 238 233 234 221 217 238
52 76 152 191 252 223 203 160 145 131 138 147 157 162 158 153 146 155 150 129 106 93 79 67 64 62 66 77 76 68 82 109 151 161 160 161 170 208 225 219 216 211 203
81 104 140 189 228 259 234 207 214 211 222 198 196 184 183 157 149 159 139 127 106 88 62 53 59 57 60 58 63 71 76 120 163 156 155 149 142 141 176 205 197 190 190
94 115 144 211 256 297 324 343 304 270 261 252 234 208 188 168 162 166 145 121 99 84 75 58 54 39 27 57 79 81 74 116 164 157 156 139 137 111 107 144 161 136 138
105 110 203 230 305 381 416 374 346 324 315 294 265 247 222 194 163 155 140 120 90 76 77 58 48 30 15 39 54 76 77 104 144 154 150 130 125 94 87 84 68 73 115
145 155 193 249 347 454 427 378 333 297 296 303 283 255 221 194 165 143 114 92 74 48 23 30 16 43 29 38 31 82 87 100 97 134 120 75 114 81 64 77 56 54 71
130 170 216 283 377 437 412 340 300 266 276 286 257 240 201 186 150 136 110 87 49 15 32 34 38 16 10 6 -0 3 54 85 140 93 91 121 93 98 68 83 86 95 94
122 184 240 314 389 417 405 382 369 338 318 283 234 229 203 169 157 138 108 67 49 27 11 9 12 26 24 13 30 12 15 49 76 87 136 111 97 77 57 54 61 71 79
167 198 242 312 374 355 317 292 267 248 223 166 190 185 175 162 155 130 98 78 58 20 27 15 18 15 14 30 32 70 80 99 74 79 100 107 64 58 43 61 46 63 76
184 206 221 279 281 278 236 227 250 234 221 228 202 190 174 167 149 124 111 91 65 40 35 43 45 48 36 38 47 66 95 122 138 166 150 120 66 47 50 47 91 27 45
204 202 211 230 214 197 229 218 231 249 236 213 170 173 158 151 142 140 125 103 85 71 65 55 57 64 69 79 80 87 100 112 124 125 149 106 72 48 86 50 25 47 60

GFSSE_con_3kmhel_015.txt.gz
Helicity
-34 -3 -31 2 20 47 62 54 42 38 34 32 30 37 49 52 42 27 6 4 -1 -4 16 33 32 52 16 6 46 47 43 47 55 48 46 52 60 66 62 49 29 17 19
13 -12 -34 -4 33 52 53 51 48 42 36 27 25 32 45 40 27 25 11 -1 6 11 19 20 8 9 52 58 42 42 46 53 45 47 55 59 76 77 73 53 62 59 30
25 1 -23 -23 45 65 54 50 49 46 42 23 7 13 40 34 21 11 12 12 19 26 34 24 24 12 19 31 33 39 40 42 42 54 64 56 61 75 72 54 55 65 48
21 7 -17 -3 45 65 56 45 42 40 40 28 14 45 59 35 15 16 20 7 12 28 34 30 37 38 32 29 33 34 39 46 54 63 57 60 54 62 64 53 40 49 49
22 5 -6 6 52 67 60 47 41 40 36 31 24 41 10 7 40 42 37 33 30 39 38 43 43 44 49 47 45 48 49 50 63 53 57 53 46 41 35 30 39 35 36
76 16 9 15 70 85 66 49 38 33 34 33 7 -18 -47 -20 -29 -2 9 37 35 39 32 35 40 44 46 39 36 33 40 31 39 44 48 42 36 32 20 12 13 26 23
47 24 7 28 62 76 64 47 36 27 23 19 2 -39 -63 -27 -19 -38 -15 38 38 23 10 14 15 18 21 21 22 23 26 30 39 40 40 38 31 25 17 14 10 -4 -0
53 40 20 18 40 73 60 50 37 27 18 5 -13 -40 -57 -67 -59 -17 23 34 33 12 -2 4 4 6 11 17 20 24 28 28 36 39 41 42 35 27 15 16 11 2 -8
58 51 32 24 36 60 57 56 41 25 21 19 -4 -33 -51 -53 -53 -20 14 23 12 -1 -5 -4 -1 5 12 17 19 24 28 26 22 33 37 40 36 27 23 16 8 5 9
65 49 41 36 33 42 47 60 43 12 19 43 17 -3 -13 -29 -32 -9 13 11 9 7 9 14 15 13 30 48 50 52 48 47 53 49 44 43 27 28 42 54 54 31 19
63 46 44 44 41 52 65 53 42 7 23 60 48 38 16 -7 -15 -1 13 21 24 27 27 39 43 57 65 74 73 67 53 48 53 55 52 57 54 54 58 61 65 67 62
52 46 45 46 49 63 75 65 47 43 51 74 59 39 27 29 25 27 38 44 42 45 60 78 86 86 68 53 62 69 54 62 62 63 63 71 68 68 71 82 93 137 126
47 56 55 54 70 75 77 97 80 70 80 79 69 58 51 55 51 61 54 59 58 77 75 83 76 77 78 65 60 65 62 59 57 68 94 123 119 105 111 154 192 184 159
56 52 53 64 97 77 86 101 99 91 90 87 72 75 67 72 68 80 88 97 101 87 89 95 81 74 69 65 66 70 72 68 80 92 121 156 137 183 212 196 188 170 212
42 48 61 70 113 103 100 107 108 97 90 91 88 89 93 87 91 103 117 119 102 95 95 88 82 72 69 70 75 85 87 91 96 98 111 179 223 221 216 217 170 199 184
55 58 74 82 113 125 129 120 112 110 108 105 100 103 106 115 133 148 144 133 116 97 87 85 80 67 66 68 79 91 78 73 96 110 114 137 190 199 195 187 180 170 163
50 45 54 90 128 141 147 143 134 124 134 123 127 128 155 168 172 167 155 138 108 97 90 76 65 66 68 67 70 68 63 97 112 128 135 135 140 191 185 181 172 153 151
69 50 66 90 136 150 181 187 177 186 188 176 178 183 191 197 177 183 164 138 110 94 74 65 63 56 56 60 55 61 62 93 123 145 137 140 135 132 150 185 173 154 146
68 53 73 89 115 168 216 266 264 253 237 243 239 229 213 195 174 177 144 132 104 86 75 64 60 46 52 58 51 50 56 96 139 141 154 147 143 142 132 139 139 129 128
78 77 99 125 139 206 363 378 379 355 324 304 275 271 243 194 171 168 152 120 88 86 78 56 56 40 22 39 38 44 70 84 113 137 140 112 137 146 121 108 87 74 90
120 125 117 139 199 319 393 420 382 352 334 317 307 281 248 197 194 161 137 109 94 92 77 59 16 24 34 37 38 60 64 73 77 89 97 118 141 131 104 77 76 73 73
130 145 141 128 178 261 361 387 386 355 327 322 324 305 250 200 194 156 117 98 80 69 57 47 30 -2 -7 2 -13 -16 40 53 79 74 79 136 108 134 112 119 106 101 94
119 145 132 147 209 296 433 499 501 430 390 352 317 291 230 204 179 146 122 98 88 54 39 35 25 14 7 -4 12 -5 -6 32 65 60 101 112 122 99 76 66 58 62 68
136 151 114 150 253 330 359 399 350 300 283 256 256 228 227 186 170 150 127 108 83 59 47 24 4 1 -13 21 -0 30 27 36 17 21 49 99 96 85 50 35 36 25 29
169 164 139 174 237 285 326 317 330 296 264 298 274 257 212 191 169 144 124 103 96 76 59 37 21 19 8 3 16 23 43 59 76 70 86 100 81 39 25 6 2 -4 11
182 171 162 189 243 271 270 281 268 300 278 296 247 223 183 181 163 142 124 115 103 87 69 57 48 39 31 31 27 33 37 32 40 72 105 94 86 41 54 7 25 25 29

GFSSE_con_3kmhel_021.txt.gz
Helicity
56 77 38 35 15 11 3 4 11 15 24 45 59 69 79 69 57 35 30 24 18 21 32 45 51 78 18 30 66 70 48 38 38 38 28 8 31 46 53 61 53 30 83
62 63 43 29 23 17 8 18 22 20 15 21 47 57 60 59 49 33 25 21 22 30 42 47 37 53 74 76 72 57 42 27 30 34 28 17 31 54 56 52 48 76 60
62 63 40 28 44 31 22 24 22 14 6 6 19 51 77 73 55 36 46 34 40 44 48 50 42 41 46 36 29 34 32 31 34 39 26 16 45 64 58 57 47 47 58
58 63 41 59 57 40 32 29 25 14 7 3 12 41 58 64 49 45 46 42 47 49 52 55 54 43 46 50 43 41 36 35 34 20 27 56 40 72 50 52 60 45 41
44 41 87 79 68 49 38 24 25 16 14 20 47 30 42 59 60 36 37 39 47 45 46 48 50 48 49 45 43 44 40 28 26 7 44 48 35 68 49 39 29 30 53
40 46 111 123 82 68 52 27 21 18 13 26 18 5 13 8 13 21 21 38 46 36 30 31 35 36 38 35 32 30 35 34 13 15 32 36 16 58 45 35 26 23 20
93 120 94 102 96 81 61 39 26 17 16 9 6 -11 -17 -8 5 -2 2 40 25 16 13 13 19 16 16 17 21 21 22 11 3 13 30 46 69 52 38 24 23 18 21
90 120 115 84 100 88 61 47 30 21 11 4 -14 -28 -30 -31 -28 -30 25 33 16 9 4 8 10 11 18 23 27 23 18 10 5 6 28 26 67 46 34 37 46 42 31
88 91 79 68 83 100 72 53 35 25 17 6 -5 -21 -26 -20 -6 31 41 29 19 11 8 12 16 20 35 42 40 33 19 2 2 55 35 57 71 52 42 63 64 61 54
79 77 80 73 76 79 64 62 46 31 28 26 25 25 19 2 8 31 44 41 28 23 28 33 37 37 45 52 43 29 7 -19 7 29 42 75 70 52 59 78 73 69 97
62 61 65 78 81 88 71 66 53 31 41 49 48 42 17 -9 7 15 74 53 47 46 41 42 41 35 27 36 39 22 4 47 46 60 78 94 68 60 70 97 121 103 103
45 48 64 66 76 85 94 93 57 53 45 36 47 47 11 36 46 67 67 54 54 52 47 39 29 11 15 38 42 23 48 50 46 60 103 109 86 91 152 161 127 153 138
56 56 48 59 70 117 95 109 90 72 77 34 49 64 56 67 70 53 58 42 46 29 20 3 18 51 47 51 55 57 48 41 52 81 138 120 106 146 177 129 150 141 122
89 71 61 57 65 80 76 112 63 32 91 61 74 62 77 72 77 82 79 113 97 61 63 67 61 49 37 45 53 54 49 42 66 95 142 144 156 175 155 140 132 122 130
105 98 79 54 58 40 54 72 89 32 106 89 92 71 72 82 81 87 145 121 103 87 86 73 64 51 47 49 49 53 56 61 63 75 106 144 152 151 144 146 121 119 124
98 102 91 64 53 50 32 53 51 53 78 83 153 88 85 99 115 192 153 131 121 112 102 85 72 57 50 48 47 49 58 65 60 73 104 96 130 139 130 130 118 111 113
80 98 101 89 69 75 40 75 61 49 67 135 141 97 109 155 207 171 164 159 137 125 105 87 69 52 44 43 39 52 53 58 56 66 78 91 73 103 111 119 113 109 112
111 125 101 128 87 78 58 73 76 109 95 206 140 165 171 176 163 163 176 173 125 116 108 95 74 44 39 45 43 50 46 45 56 80 88 91 102 90 82 105 100 93 104
77 96 125 133 107 80 83 42 92 165 200 203 162 186 223 185 177 176 182 157 125 130 112 82 71 54 46 45 35 44 53 43 65 79 85 84 94 96 95 103 80 63 83
83 106 109 143 121 100 111 86 183 220 270 317 334 257 221 210 194 205 169 154 140 125 95 75 64 54 49 42 32 42 53 56 74 67 74 75 89 87 92 90 89 90 77
161 154 153 159 156 162 164 225 280 332 380 372 283 283 276 238 205 190 170 155 147 125 98 74 60 52 46 46 25 48 45 61 63 70 74 78 99 81 78 109 100 94 101
199 226 234 188 175 180 224 242 330 416 391 324 328 369 314 288 248 200 150 162 142 113 94 75 56 28 31 31 19 6 58 57 45 83 72 119 84 120 120 123 107 108 121
114 187 227 232 226 211 249 323 480 525 486 425 403 370 400 361 297 234 164 149 132 108 86 69 50 39 26 25 27 24 32 83 98 87 79 106 103 114 119 102 93 105 113
104 194 219 250 269 227 273 356 383 401 442 414 423 395 429 387 323 235 174 150 129 100 81 59 45 35 5 34 9 47 68 100 91 95 127 101 92 117 83 104 103 96 82
113 184 230 215 275 253 288 287 284 255 390 451 420 440 457 412 305 231 178 152 127 101 80 62 44 42 33 31 40 42 49 51 47 83 84 74 105 103 114 96 85 83 64
129 210 251 203 191 259 239 193 208 261 419 501 440 487 442 329 309 219 170 147 119 99 80 67 57 46 44 46 50 59 69 90 107 122 112 102 98 92 97 114 102 81 80

GFSSE_con_3kmhel_024.txt.gz
Helicity
88 77 59 49 37 24 16 17 21 28 36 46 61 76 86 85 76 72 63 53 39 37 38 48 68 73 50 69 86 55 48 41 42 39 33 16 25 39 46 52 50 65 66
136 68 52 45 39 28 20 17 17 18 20 34 52 64 71 64 59 46 40 42 45 42 42 54 59 74 83 107 79 47 36 34 33 29 16 7 21 38 45 45 41 43 55
114 81 47 53 53 40 36 27 15 9 7 10 22 17 50 62 57 42 47 46 48 47 48 59 66 60 51 33 35 30 23 27 25 16 13 23 10 54 45 46 40 40 43
93 78 60 66 61 60 47 33 23 9 9 6 19 51 75 76 67 48 48 47 51 52 51 54 55 52 58 47 36 31 27 28 18 8 26 37 57 52 45 41 31 34 47
113 28 78 87 74 68 51 31 23 12 5 5 19 32 35 41 41 41 33 42 42 42 37 39 41 40 41 40 30 27 44 18 5 5 16 44 32 50 45 34 21 14 13
61 127 116 97 92 83 56 40 31 18 11 16 19 21 1 2 2 9 23 34 30 30 30 28 27 28 27 19 12 17 17 4 -12 -2 7 18 41 49 36 28 21 21 15
211 150 120 137 122 97 69 52 41 28 17 15 5 -0 4 -1 -13 -18 8 34 20 16 14 16 18 19 13 9 9 7 2 -4 -7 9 35 41 40 45 35 34 34 28 28
145 123 133 159 136 99 79 60 47 34 30 14 7 -2 -7 -23 -38 -50 29 23 14 5 4 6 8 7 4 8 8 8 5 1 -1 22 49 65 63 53 40 54 54 63 69
151 144 131 134 114 104 87 77 54 39 29 20 6 -0 5 -11 -0 45 47 30 20 14 12 9 5 6 10 11 14 12 5 6 42 36 96 56 60 54 53 48 56 74 83
134 112 101 124 117 104 83 84 66 48 33 33 26 23 26 10 29 50 57 48 31 23 21 16 11 10 13 13 17 13 5 18 45 73 70 63 82 66 60 69 107 100 111
107 90 105 118 111 99 99 89 76 65 52 44 45 50 32 12 13 41 57 54 47 36 33 23 14 -1 -1 3 4 9 39 49 66 80 62 98 96 76 113 120 123 166 124
95 81 97 120 83 87 104 133 83 75 65 64 58 54 25 15 42 87 76 63 50 46 39 24 8 10 13 14 11 28 45 59 68 98 86 103 96 142 166 145 162 128 114
87 93 89 139 135 131 161 126 79 90 62 48 81 66 46 124 128 98 79 64 45 38 24 23 21 39 46 42 48 56 51 53 86 104 126 138 148 180 126 152 122 108 111
84 97 109 83 133 194 218 140 84 97 75 21 43 65 105 124 90 85 88 62 54 54 69 88 76 55 57 67 55 50 62 66 84 103 123 154 160 150 133 113 104 102 102
133 136 143 139 137 188 167 134 101 44 107 37 134 132 126 96 81 73 157 179 131 113 132 112 104 93 77 63 63 62 69 88 107 100 91 136 134 133 118 104 96 90 91
133 171 191 160 166 169 151 143 96 72 68 124 121 109 105 92 83 191 257 171 143 144 146 136 118 97 83 67 54 55 72 83 93 114 74 82 110 105 100 95 93 89 88
94 141 182 196 187 188 87 147 110 98 16 189 171 130 125 139 235 266 219 177 162 148 147 147 123 100 93 71 56 52 74 75 82 97 85 59 62 76 76 81 83 79 78
119 88 141 172 189 209 170 114 138 160 71 213 210 158 150 255 297 268 218 175 169 158 155 155 137 112 90 78 59 57 63 63 66 110 120 117 79 67 74 76 75 72 73
152 122 134 196 221 216 231 119 201 132 181 286 282 207 257 360 264 245 211 209 202 181 168 133 136 102 82 65 48 44 66 62 65 94 102 97 94 102 83 88 77 82 70
124 177 175 215 255 248 267 158 188 217 274 288 349 378 463 342 288 250 211 240 206 196 163 140 107 87 72 56 30 27 52 49 91 85 88 88 91 102 74 65 71 78 97
206 171 181 267 272 271 312 258 271 373 385 412 514 512 404 311 273 263 250 250 203 193 167 118 95 95 88 67 32 25 25 49 64 58 77 88 112 78 77 96 94 71 65
137 208 210 196 282 286 236 306 411 509 488 535 508 442 336 305 263 291 311 280 234 222 184 136 104 72 58 51 27 11 29 42 53 35 90 124 104 108 127 110 86 66 84
148 103 197 245 253 301 335 550 751 707 690 615 520 467 367 321 300 365 332 276 222 201 168 126 101 84 52 29 31 13 30 32 40 108 98 134 113 113 107 83 73 85 112
153 159 121 217 282 350 510 659 598 505 566 515 502 456 384 361 385 404 350 295 241 187 152 113 91 68 50 36 24 37 43 60 60 74 119 111 100 125 103 101 89 99 100
96 163 196 145 223 364 552 605 561 518 556 532 507 445 397 439 442 429 375 292 241 179 143 116 89 76 60 46 36 34 42 51 61 98 91 92 85 89 94 98 99 97 91
114 146 184 246 286 391 519 548 472 489 497 533 494 502 453 504 457 404 393 279 249 193 148 117 97 86 71 64 57 54 54 68 81 120 142 101 96 85 104 96 91 91 91

GFSSE_con_3kmhel_027.txt.gz
Helicity
54 53 52 58 65 63 58 56 51 51 57 71 84 79 80 91 85 67 54 59 51 34 38 52 36 49 56 81 64 47 49 47 37 39 42 41 36 39 37 44 52 60 48
83 50 61 63 74 65 60 58 48 35 38 54 74 94 84 92 82 57 53 49 45 42 45 46 53 66 84 75 39 36 35 34 31 33 31 23 20 48 45 46 43 43 44
103 53 55 64 75 72 68 55 43 27 20 28 30 40 61 73 56 55 50 44 41 35 35 43 43 46 33 38 38 43 28 26 32 29 20 21 17 53 57 51 46 31 30
117 51 45 64 69 67 62 56 34 22 13 3 3 27 83 79 49 39 42 37 35 31 31 39 42 47 49 32 34 32 18 18 12 14 25 -5 25 48 50 41 23 29 36
117 53 45 66 71 61 63 58 39 27 19 19 31 49 67 54 40 33 30 28 24 22 27 34 37 33 29 24 23 26 19 -3 -2 1 -1 36 36 37 44 32 13 12 11
87 74 70 68 86 77 60 64 48 35 19 27 27 22 15 9 4 9 18 18 16 15 20 20 18 16 15 14 12 10 9 -5 -11 19 21 32 20 40 35 28 16 12 10
105 91 82 83 97 81 67 65 51 43 43 31 19 -2 -11 -15 -15 -16 10 7 7 6 7 9 9 10 10 12 11 10 8 5 11 40 15 34 33 43 36 43 59 63 61
117 98 78 108 116 92 78 79 64 44 46 31 19 15 -4 -24 -33 -17 18 4 1 -3 -3 1 5 3 5 8 7 3 3 16 39 65 77 84 71 52 38 50 46 58 73
187 146 118 112 116 93 74 69 61 59 46 43 28 25 4 -27 -38 24 24 13 11 8 8 6 7 5 4 4 2 3 17 40 58 65 67 64 67 58 54 61 70 101 120
149 135 150 137 140 104 75 72 65 61 62 56 37 47 33 21 36 49 37 26 14 11 16 16 10 2 -4 -1 4 24 43 89 70 71 70 64 75 70 86 104 101 126 111
149 127 140 157 153 117 102 84 84 79 56 61 58 52 41 36 42 57 41 40 25 18 16 15 10 15 13 8 12 38 66 76 64 66 56 75 91 131 120 137 145 125 117
157 131 132 143 142 124 113 114 107 107 83 65 62 52 46 41 55 67 57 51 36 33 27 18 27 30 31 26 32 63 51 85 74 80 77 85 104 152 151 140 112 93 98
135 149 141 122 122 123 138 147 134 113 90 58 57 45 57 51 67 87 74 59 43 40 34 45 40 39 49 56 58 66 66 91 84 91 103 139 161 129 133 104 106 108 87
111 107 160 153 125 126 167 161 132 130 85 76 77 47 89 103 132 97 96 67 60 51 56 59 58 72 80 77 75 83 89 98 84 94 109 149 152 149 111 97 97 96 85
111 109 142 161 162 176 210 171 154 133 102 69 72 57 107 102 107 117 120 90 84 88 91 105 107 101 95 92 86 83 91 112 89 88 84 127 127 124 111 99 91 94 89
122 156 130 155 190 240 230 195 173 164 90 75 79 67 104 111 104 155 178 138 155 175 147 127 114 108 101 88 99 83 90 113 81 80 78 82 101 100 99 100 98 92 89
133 145 185 176 258 253 238 195 195 145 132 100 112 129 125 117 157 210 213 208 195 184 175 158 148 130 128 103 101 81 79 90 106 85 79 78 85 94 94 94 97 92 84
190 167 174 223 253 275 244 227 234 165 132 128 155 194 163 211 251 265 260 237 219 207 169 175 167 161 130 105 83 79 69 74 103 100 79 73 65 62 76 83 87 87 82
127 197 160 224 279 247 238 264 235 204 161 154 215 263 280 318 317 277 264 250 242 226 195 186 187 141 128 100 73 73 54 67 73 100 92 76 54 54 45 67 94 95 97
66 144 189 201 314 294 261 243 293 258 183 196 222 329 372 400 345 301 285 267 257 249 214 199 182 168 117 94 67 63 36 42 50 73 76 78 81 82 64 77 76 65 72
126 115 122 182 248 396 383 352 321 310 318 328 321 393 449 418 355 335 325 294 251 237 207 194 183 156 142 98 83 73 48 37 30 33 45 73 82 75 78 70 50 45 47
103 121 139 109 171 313 404 397 397 387 397 425 410 431 448 401 351 362 328 299 262 285 246 204 168 146 120 117 87 73 78 49 31 43 69 97 100 102 94 74 65 46 37
70 96 108 117 125 263 400 636 686 670 608 569 505 488 460 422 391 377 322 346 287 273 237 204 168 134 115 98 86 59 76 54 44 58 95 140 147 131 125 104 75 56 52
81 115 95 123 119 157 426 562 569 562 577 565 552 522 475 427 409 420 390 333 338 295 266 206 150 127 110 92 73 72 64 59 59 64 86 112 128 142 103 77 78 87 82
124 109 145 111 157 159 335 478 530 563 610 634 634 587 533 509 460 470 434 349 340 307 277 226 172 138 107 91 75 68 80 78 95 101 86 107 121 92 95 105 85 103 119
203 201 183 141 127 202 319 439 538 660 652 594 557 546 523 574 528 485 420 364 322 338 259 230 180 151 119 101 84 78 74 79 87 114 113 111 93 80 99 94 96 111 105

GFSSE_con_3kmhel_030.txt.gz
Helicity
37 22 42 45 62 74 78 80 81 76 73 87 91 99 104 98 82 75 74 67 56 47 41 35 15 -12 25 38 25 41 54 55 59 65 81 80 76 57 50 52 60 52 52
53 43 48 44 62 80 84 80 75 70 67 79 91 90 90 76 60 48 50 44 42 37 39 42 43 61 63 45 25 28 31 37 49 54 49 37 38 55 49 44 42 43 43
96 54 43 43 53 66 70 73 67 63 63 65 74 72 71 63 52 49 41 33 29 28 30 37 38 41 30 24 28 21 28 42 44 37 30 21 29 53 54 49 34 25 34
102 61 45 45 50 56 58 58 60 49 44 39 36 46 62 42 37 39 31 27 24 22 22 26 29 25 22 26 26 26 26 32 38 41 31 23 25 61 57 39 23 14 23
126 77 49 45 49 60 55 45 60 43 30 0 -4 90 81 51 29 25 20 17 16 16 15 16 16 18 21 23 24 29 18 25 40 30 24 9 20 35 39 33 21 17 6
130 98 61 48 46 66 54 41 56 50 44 52 71 73 57 36 16 13 11 8 2 -1 -4 1 3 8 12 12 13 16 19 33 28 13 10 -6 22 24 29 37 23 19 9
136 104 74 50 59 67 59 44 56 51 48 43 31 28 18 3 2 2 -1 -3 -9 -13 -12 -8 -5 -1 3 8 13 17 25 42 30 26 25 22 26 32 29 38 46 41 47
131 105 75 53 58 72 57 40 47 69 62 50 36 16 -4 -15 -14 -7 -7 -11 -14 -17 -17 -10 0 4 5 11 16 24 40 57 51 67 66 72 50 44 40 42 51 80 99
119 117 89 66 66 67 59 47 45 69 67 56 32 18 -6 -23 -26 -3 2 -7 -14 -11 -9 -5 0 5 10 12 25 38 45 42 60 65 63 60 55 59 57 55 93 97 105
116 109 94 99 93 81 71 58 51 58 65 59 46 36 2 -23 -3 35 23 2 -3 -5 -3 6 10 11 16 26 42 59 71 86 82 75 62 57 54 82 93 103 124 122 125
142 119 118 125 133 119 97 69 66 80 83 78 64 53 42 26 61 72 46 34 17 12 8 9 16 24 26 39 43 75 74 59 76 69 52 64 123 111 141 160 147 131 122
148 119 122 138 150 138 111 97 91 92 87 88 81 62 64 52 54 57 53 49 40 39 35 28 37 36 41 42 55 83 63 67 83 81 66 92 143 142 152 119 115 121 87
160 145 123 134 148 155 143 128 119 110 101 92 88 79 82 67 62 73 74 53 56 56 57 67 70 62 59 56 63 80 78 90 94 103 122 157 130 139 126 96 106 105 86
163 157 147 137 153 152 157 160 139 136 115 104 81 91 113 100 86 84 93 79 73 76 78 86 91 89 95 85 78 93 87 91 94 108 130 151 149 149 94 94 96 95 90
152 150 170 168 151 161 165 150 148 142 138 103 105 108 113 112 105 109 86 94 89 100 89 111 118 115 112 100 94 104 100 102 101 102 106 148 139 129 111 99 95 90 85
123 183 195 179 162 187 190 175 152 139 115 139 120 125 110 117 139 136 113 112 113 104 116 125 119 118 123 110 115 115 100 90 94 96 96 106 123 116 107 98 90 84 86
124 145 215 225 200 201 206 206 204 190 111 158 121 104 128 132 148 139 143 156 143 145 173 171 163 150 147 125 125 111 103 93 86 94 84 89 102 113 99 93 90 79 86
152 144 175 226 269 234 233 217 234 207 157 181 141 86 102 112 158 192 201 214 204 204 199 188 167 180 163 143 120 111 101 91 87 83 79 74 68 74 84 86 84 92 96
116 179 177 220 270 294 259 248 285 246 227 185 164 136 159 177 222 244 250 254 253 242 222 191 180 169 164 147 118 109 93 84 85 77 65 53 53 59 59 81 82 89 99
115 114 164 172 258 281 299 295 321 283 265 209 185 188 230 280 293 301 319 301 271 261 227 199 198 209 173 148 138 121 98 75 66 62 54 50 48 59 65 68 75 74 87
134 136 155 179 180 323 376 360 334 274 266 293 248 262 292 351 329 360 363 330 278 263 221 199 223 207 203 155 153 150 118 87 64 56 62 67 76 81 84 86 83 75 59
110 120 128 157 172 221 341 372 392 372 356 305 344 348 326 382 378 386 410 355 296 306 243 193 204 206 182 172 154 152 138 103 82 85 82 100 117 126 129 113 93 76 62
65 91 111 131 123 132 208 462 520 537 515 476 413 395 394 394 436 386 396 398 340 316 268 189 195 195 186 169 161 138 149 116 103 94 123 157 150 158 153 131 117 113 97
55 66 71 89 127 147 240 307 372 394 453 422 406 474 460 403 387 443 445 441 395 331 272 244 224 192 193 166 151 142 132 107 97 98 100 117 143 160 132 101 115 121 144
107 86 73 81 83 148 227 281 293 360 428 568 572 534 513 489 390 480 497 459 433 341 294 268 246 254 195 159 134 124 126 128 123 128 116 116 145 140 111 140 128 165 192
142 148 160 150 144 119 174 258 252 331 499 565 578 561 553 553 520 511 490 484 458 382 333 294 292 257 219 174 144 128 113 108 108 123 124 116 116 109 136 128 156 184 161

GFSSE_con_3kmhel_033.txt.gz
Helicity
-0 -17 31 23 34 49 70 82 80 81 88 99 111 123 126 117 105 94 85 68 53 36 22 18 2 13 14 35 35 55 63 79 85 85 78 77 69 58 52 55 64 46 52
51 21 37 22 26 39 61 79 67 70 96 105 94 81 82 78 61 47 45 39 31 27 25 20 -5 -14 31 39 26 31 42 51 57 53 52 53 51 55 54 50 51 47 43
106 50 44 34 23 34 47 61 71 88 103 116 104 88 67 49 42 35 32 28 23 20 21 44 68 70 50 26 19 17 32 45 49 46 46 37 37 59 55 43 32 25 37
83 65 51 44 37 31 38 39 41 64 78 98 84 67 57 47 37 35 28 22 19 14 10 24 34 32 25 19 22 31 46 44 40 39 34 27 28 68 58 37 23 14 17
98 80 57 55 36 35 46 35 30 39 50 58 57 65 43 39 32 29 23 20 15 7 9 15 20 18 17 20 29 32 34 28 31 17 14 15 30 42 53 41 26 16 -0
106 97 73 65 39 37 37 30 23 31 31 44 59 80 56 35 20 14 12 11 6 1 -1 -0 2 4 6 7 13 25 24 20 15 -0 -1 -0 31 40 44 54 77 49 15
140 109 93 69 43 40 38 33 28 36 45 50 85 70 42 22 14 3 -3 -10 -13 -16 -16 -17 -13 -6 3 12 14 23 24 28 22 29 28 16 20 41 38 40 45 57 64
133 120 99 69 49 39 33 41 29 28 44 57 57 31 21 15 9 1 -3 -7 -15 -19 -16 -7 -0 4 7 10 15 26 31 39 39 59 51 44 50 51 46 50 83 96 114
119 123 112 78 54 47 38 41 23 39 42 47 42 22 10 5 11 13 4 -4 -14 -18 -13 -3 2 8 19 20 21 27 24 39 51 54 56 48 53 61 56 79 91 117 126
105 114 108 101 76 71 55 42 32 56 47 48 32 28 15 -6 -10 7 20 9 3 -1 -6 -5 -0 10 34 41 41 51 60 80 62 61 56 41 52 80 93 123 122 130 135
81 88 106 105 90 91 81 55 51 60 59 56 57 53 20 -1 -13 23 31 22 24 17 21 19 22 34 53 59 58 64 64 49 53 52 45 59 105 125 150 157 143 133 120
112 95 97 92 106 118 101 86 83 71 77 68 68 62 46 29 64 78 52 37 34 33 37 36 53 69 70 69 58 71 50 59 64 59 50 96 116 136 161 122 132 109 96
120 125 102 108 108 137 137 118 112 100 98 89 88 85 73 78 86 91 74 53 52 61 62 75 76 74 85 88 83 74 70 71 71 81 102 125 124 131 133 103 114 99 82
125 124 129 116 120 140 160 159 136 126 113 111 100 105 117 106 107 112 97 75 73 80 83 95 96 91 105 107 95 99 93 92 96 110 136 164 155 138 109 100 101 97 89
169 134 113 127 140 161 170 174 166 150 145 118 119 124 137 134 124 124 98 97 88 100 100 107 116 105 106 112 102 101 100 105 113 116 130 175 154 131 113 103 96 93 87
169 159 171 141 154 183 189 178 181 154 134 135 129 147 152 154 147 125 121 103 102 101 110 114 120 117 120 118 124 118 102 102 109 112 113 124 135 120 110 97 89 92 90
212 178 188 179 193 192 194 196 196 164 135 135 148 153 161 168 149 144 138 126 101 115 144 152 151 138 141 136 138 127 113 99 98 99 98 101 108 117 104 99 94 99 101
227 221 213 211 212 221 225 216 201 193 172 152 156 151 154 150 159 167 166 136 131 164 185 176 156 158 143 139 137 135 125 106 97 96 89 79 80 88 90 97 102 103 105
189 191 191 221 239 219 242 278 226 236 200 193 143 156 163 159 166 182 170 168 190 210 198 186 174 151 144 147 143 144 133 111 88 89 75 66 60 67 64 76 92 102 106
113 129 158 176 181 253 313 291 250 273 240 239 160 169 203 200 186 203 187 225 248 242 226 195 187 186 164 156 167 166 149 114 99 77 65 65 59 68 80 93 92 89 90
114 155 176 191 155 222 346 383 309 270 274 273 209 190 270 252 228 254 228 286 256 241 226 218 217 182 196 173 185 175 164 150 126 97 74 71 79 95 108 115 98 92 87
129 169 203 221 191 183 269 299 386 343 270 275 272 250 305 301 278 317 308 299 272 287 256 243 228 208 204 180 174 183 165 149 133 118 99 99 121 136 151 150 139 124 110
104 116 138 192 199 193 217 322 428 494 500 446 366 329 317 322 343 319 360 352 335 330 297 243 241 230 232 210 169 181 192 148 148 135 144 149 153 166 168 150 148 135 135
77 102 102 124 145 165 211 311 374 394 409 394 337 370 386 351 360 367 379 400 356 363 336 276 284 244 261 247 241 195 181 155 147 131 135 139 156 162 161 143 146 167 187
89 119 125 130 117 126 152 214 270 272 308 376 480 430 420 426 377 410 417 422 365 397 374 379 332 257 242 242 259 228 198 189 175 161 139 121 127 125 136 148 165 205 239
80 95 111 122 125 127 142 165 202 210 314 386 458 475 450 455 446 429 440 466 429 442 416 378 348 296 271 252 233 250 208 179 150 154 156 136 133 142 153 147 204 221 236

GFSSE_con_3kmhel_036.txt.gz
Helicity
7 0 36 14 22 22 23 46 68 89 98 103 117 128 116 94 82 74 64 58 41 26 24 0 3 16 16 45 56 74 87 90 82 75 75 73 57 55 59 51 46 39 43
53 13 43 24 13 6 28 49 65 87 96 92 91 104 107 92 70 53 44 28 23 23 -2 -1 -20 3 26 39 35 47 58 69 67 61 56 51 47 50 48 43 46 43 45
83 47 31 41 22 -4 13 33 35 66 89 85 84 80 59 56 54 46 37 26 19 21 39 49 9 60 53 30 22 27 39 42 42 39 39 34 28 49 44 34 26 31 30
90 58 31 43 32 15 26 32 42 58 84 91 80 73 43 39 34 31 28 27 24 29 24 39 45 33 28 23 24 29 31 32 33 33 20 32 22 60 54 44 31 25 11
97 64 42 51 51 23 16 33 38 39 65 82 67 58 39 34 29 27 23 18 11 8 10 14 17 17 18 26 29 19 19 18 17 11 4 26 17 36 62 52 33 25 13
102 88 57 63 60 32 20 26 35 32 39 55 52 49 37 29 25 23 20 14 4 -2 -4 0 4 9 12 15 18 17 12 9 3 -6 -6 -1 6 43 60 56 49 62 51
111 97 78 71 53 31 18 21 23 27 20 24 54 39 30 20 16 14 8 3 -2 -10 -9 -5 0 6 11 16 13 12 16 18 12 22 9 3 1 43 51 58 75 85 94
98 103 88 66 47 36 21 24 24 19 6 8 63 32 19 13 18 13 7 -2 -8 -7 -7 2 8 7 11 14 14 16 23 31 35 37 27 21 28 47 49 70 101 102 108
92 116 97 76 52 44 34 33 28 25 16 52 53 30 10 7 6 4 5 3 -3 -6 1 7 7 10 13 19 23 21 32 47 37 31 33 27 24 48 71 87 101 110 106
98 95 97 78 79 64 53 44 27 47 35 23 26 19 21 14 20 15 5 1 2 1 5 8 16 16 31 32 43 59 63 64 44 39 34 21 42 73 107 116 131 120 106
63 75 97 98 76 75 70 49 49 58 60 43 35 37 37 23 1 5 35 10 11 9 13 30 33 36 49 50 53 60 65 45 48 48 46 66 104 126 125 134 140 126 107
61 47 64 85 87 91 86 84 77 76 81 63 48 50 52 36 18 32 52 40 38 21 44 40 53 62 49 41 47 63 55 54 57 58 53 84 132 133 151 123 117 111 103
68 65 60 70 75 102 117 108 103 100 98 88 75 68 72 74 69 93 79 66 61 66 68 79 82 72 70 59 58 62 66 70 69 76 78 117 123 125 130 108 104 95 77
93 77 78 76 86 90 128 128 122 126 115 104 96 100 110 103 108 113 103 92 86 86 87 87 93 93 89 85 75 76 81 84 89 108 130 157 146 129 100 92 90 82 72
80 86 95 96 110 100 134 144 141 131 126 107 121 131 138 130 121 131 125 121 108 101 95 99 105 106 99 98 92 87 89 98 107 117 137 172 148 115 100 96 89 83 76
126 109 127 113 139 129 143 161 161 149 135 131 141 142 144 143 136 136 146 137 125 108 108 112 107 112 107 99 107 96 99 103 112 124 131 134 138 123 105 95 92 89 82
162 185 171 145 157 147 150 187 183 166 153 138 156 156 152 162 144 138 145 151 136 132 143 147 139 137 135 125 126 121 110 105 109 117 117 122 125 115 101 98 99 95 88
157 179 189 212 173 165 167 207 221 202 175 158 163 160 163 184 165 158 161 152 150 160 161 161 158 165 144 123 127 131 123 105 106 109 111 110 104 104 102 97 96 93 95
160 167 183 205 224 190 200 216 222 218 216 206 200 169 164 173 178 184 171 148 183 180 170 195 180 160 145 137 130 136 132 116 104 109 108 102 95 95 92 100 109 104 94
163 174 191 200 194 208 222 233 236 247 214 219 222 196 191 175 193 194 185 183 222 217 218 198 198 190 154 144 166 171 146 124 114 107 100 96 88 92 97 102 101 94 99
175 194 216 229 214 262 268 244 216 215 249 255 251 210 212 196 212 212 232 214 231 233 175 208 224 190 176 164 206 189 170 144 128 122 105 97 99 104 112 114 103 96 94
113 137 156 187 188 231 279 289 317 244 236 288 285 247 262 267 241 249 290 260 224 221 233 243 257 242 188 164 185 197 160 160 156 143 122 105 112 127 138 138 134 128 114
89 112 138 147 137 155 268 322 430 416 360 381 346 275 289 310 297 260 318 309 293 228 253 216 224 263 250 200 174 188 182 153 186 165 151 130 130 153 163 154 154 137 134
147 102 120 162 178 169 181 286 318 335 352 351 336 306 342 372 329 307 325 362 333 305 270 289 264 282 333 281 233 195 218 200 202 187 157 150 151 155 169 166 159 156 154
95 114 125 125 186 182 192 219 230 237 255 302 321 304 361 367 366 363 364 381 368 405 312 333 319 346 320 341 323 280 255 253 249 236 203 153 151 146 156 164 157 160 184
132 141 139 155 118 103 150 166 185 182 207 284 299 316 336 377 405 383 371 375 401 431 400 387 353 349 346 330 339 304 308 282 248 260 251 199 159 154 161 172 168 177 203

GFSSE_con_3kmhel_039.txt.gz
Helicity
35 22 20 28 12 -6 10 23 36 54 87 80 89 96 97 91 81 78 81 53 15 11 -0 -2 5 21 39 40 64 74 72 60 50 62 71 61 49 46 46 42 29 31 34
47 42 43 17 17 -4 4 30 49 63 93 79 91 87 81 68 55 48 49 29 20 -11 -3 -45 -11 24 28 23 31 48 55 66 64 61 50 41 40 48 44 39 39 41 38
62 44 40 20 12 1 -0 34 51 54 80 60 70 67 53 41 34 33 27 19 37 40 3 -20 19 58 33 19 15 15 32 36 35 36 40 38 46 46 36 27 27 28 29
73 42 30 29 8 11 6 25 44 44 54 48 42 35 24 18 17 17 16 20 37 39 56 41 39 45 27 24 24 22 25 31 32 24 34 43 41 52 40 27 23 19 15
60 43 44 32 16 26 17 11 38 61 60 47 59 30 9 6 9 9 12 9 13 5 25 29 27 22 18 20 14 14 17 18 17 19 29 27 26 41 54 45 27 12 18
65 57 52 50 45 42 24 10 27 41 45 45 42 23 7 3 4 4 2 -7 -1 -2 1 -0 5 12 9 9 6 6 10 6 1 7 11 10 21 41 37 48 65 65 59
62 66 60 68 57 38 25 11 10 22 29 30 30 21 9 4 7 6 3 -2 -9 -9 -4 2 11 14 9 8 4 4 12 15 14 15 12 12 18 37 38 74 96 103 126
67 59 64 78 54 34 25 21 10 8 18 8 42 32 18 13 7 4 2 -2 -6 -5 1 10 15 17 17 9 10 13 20 22 21 24 22 19 27 32 46 80 96 99 116
77 74 61 52 42 35 32 29 28 12 8 14 47 43 25 25 17 7 1 -1 -1 -3 9 4 11 13 12 13 11 19 29 33 28 26 23 19 15 47 74 91 95 95 112
68 64 58 49 45 34 31 37 28 17 31 50 46 52 38 38 29 26 19 9 7 4 18 8 27 26 25 28 35 42 46 39 31 28 24 20 47 82 107 115 106 87 99
58 52 55 56 45 47 41 36 35 38 56 56 44 42 48 33 30 34 39 26 26 20 13 24 36 47 51 51 48 49 38 30 34 37 43 72 110 110 111 121 110 96 82
52 37 40 46 50 58 57 49 42 61 61 59 63 59 49 50 48 47 55 51 49 46 63 54 60 62 46 33 35 40 38 42 48 56 58 101 108 115 103 107 92 88 82
33 41 29 35 37 55 62 69 70 81 83 73 68 72 70 63 55 56 65 65 66 81 82 84 65 57 54 46 46 49 52 56 59 66 77 116 116 109 100 113 87 74 69
40 38 47 34 44 56 69 73 77 94 97 86 77 79 99 87 75 71 85 88 89 91 99 90 82 80 71 64 60 62 65 67 73 89 106 152 145 107 91 90 77 69 63
46 46 72 66 59 79 81 81 81 87 89 83 90 92 98 101 93 96 100 108 105 109 103 105 101 99 88 80 73 70 77 88 98 108 110 160 136 108 97 86 76 67 64
64 45 57 79 104 113 103 103 86 85 84 85 94 95 93 107 107 106 110 115 114 109 110 109 105 107 103 89 88 85 88 96 107 116 124 128 141 118 101 87 80 76 67
70 76 83 86 114 118 124 142 109 88 96 96 100 94 98 102 111 116 118 131 124 124 136 147 142 132 120 110 108 108 105 111 119 124 126 129 124 126 107 91 83 77 72
122 104 95 156 143 136 123 150 156 125 112 118 118 115 107 102 104 121 135 139 138 146 151 147 154 147 138 128 119 112 113 118 121 126 128 129 131 129 117 98 86 82 73
131 136 130 123 124 126 130 158 177 155 160 160 166 145 123 125 113 128 137 128 155 171 158 162 165 152 150 148 139 128 129 121 119 125 123 127 124 122 113 118 110 96 85
133 143 154 174 138 142 166 174 175 174 155 161 179 164 152 162 145 149 137 123 167 185 176 179 172 188 177 164 160 149 140 136 128 123 126 124 116 113 109 102 96 95 102
146 144 155 189 203 207 232 236 216 197 173 188 181 165 168 189 184 163 166 146 178 195 181 159 220 209 209 198 203 160 151 147 138 130 132 137 121 109 106 104 104 99 97
149 168 174 176 181 221 256 266 275 239 207 185 181 188 186 217 236 229 217 201 186 212 185 209 252 254 215 186 200 188 150 145 150 149 150 139 129 126 122 122 120 123 115
174 169 155 160 159 162 182 243 339 335 309 260 249 200 229 256 282 266 273 289 251 258 249 222 232 216 241 174 206 193 173 150 182 180 166 166 153 144 146 150 146 135 128
188 171 149 152 143 144 155 181 209 265 286 310 309 225 213 255 296 283 292 298 306 287 278 259 239 242 242 256 228 180 223 203 177 165 171 177 167 156 156 172 165 153 146
160 155 145 149 166 172 192 175 192 186 194 219 244 204 212 254 274 296 303 321 324 343 300 321 319 273 279 278 332 307 253 255 241 232 175 175 179 172 182 185 182 172 162
170 167 146 134 147 146 164 196 190 169 163 207 215 198 209 244 291 294 298 319 334 320 344 373 345 330 290 309 296 326 344 320 280 296 260 214 195 211 218 202 188 181 174

GFSSE_con_3kmhel_042.txt.gz
Helicity
48 32 32 -0 2 -20 -13 -3 24 36 63 77 67 68 73 70 60 49 26 7 5 2 1 -8 18 40 27 25 34 41 45 56 45 42 43 34 35 35 33 33 8 51 52
55 42 32 1 17 -3 -9 8 33 55 68 72 68 62 61 49 41 36 14 -1 -20 -17 -38 -15 14 18 27 19 40 30 23 20 20 17 7 12 37 34 35 36 49 50 66
62 61 35 30 21 7 -5 29 50 54 67 68 45 42 37 28 20 18 7 15 6 1 -20 -10 33 46 27 21 20 20 27 25 21 21 -9 33 40 33 31 29 37 33 39
62 45 30 40 17 12 23 20 49 60 54 45 50 34 19 13 15 18 19 33 53 64 47 65 52 36 26 26 19 19 24 28 21 4 25 39 45 44 30 25 22 12 14
52 29 42 35 18 25 22 15 27 43 42 27 63 28 12 9 7 11 23 28 40 45 41 30 15 15 15 20 15 17 20 20 7 -5 30 35 45 53 57 35 16 13 5
44 37 75 43 20 32 27 2 20 43 35 47 48 20 3 -1 -3 -4 -0 11 6 15 13 11 11 9 12 9 7 5 3 -2 -33 14 18 28 32 41 49 62 60 62 47
42 53 55 50 51 49 34 19 10 20 25 44 33 19 9 6 1 -8 -16 -12 -8 -10 -9 -3 4 10 9 4 1 1 2 -7 -3 12 14 19 42 32 63 76 90 107 113
48 47 73 62 69 49 30 23 26 19 24 39 39 32 22 18 11 2 -4 -13 -15 -11 -3 1 6 7 3 -0 1 5 6 -8 -4 14 17 20 30 26 59 77 80 99 112
47 45 57 46 51 49 36 21 26 18 13 24 45 48 40 37 28 20 9 -0 -1 -0 7 6 15 7 5 4 6 14 15 -8 4 21 17 17 18 47 80 78 76 86 94
30 42 45 47 42 37 35 28 23 17 6 22 43 68 58 57 40 32 20 14 9 11 14 22 26 23 22 24 26 27 21 -2 23 21 21 37 45 90 101 95 75 75 82
19 28 44 55 52 44 41 45 25 19 30 44 68 68 63 31 39 54 48 42 25 32 37 50 51 45 47 45 41 30 -3 19 24 26 32 81 103 112 115 102 77 77 86
34 31 45 51 56 55 55 45 23 34 25 38 51 57 31 38 42 40 66 52 45 41 39 69 64 55 10 30 35 18 20 29 29 37 75 100 101 109 102 90 90 80 74
35 31 26 39 40 46 57 55 46 44 41 39 39 47 48 58 69 49 66 62 59 59 61 59 55 37 42 43 43 41 43 39 45 51 109 104 108 103 90 88 84 72 70
45 34 30 39 42 31 43 48 53 56 58 54 54 51 67 68 66 63 66 64 71 69 72 59 64 68 67 60 55 55 53 54 57 56 124 125 142 103 91 88 82 71 63
80 52 36 32 35 36 33 49 53 57 61 61 61 59 65 71 71 71 76 84 77 84 81 83 83 86 82 80 71 61 62 65 70 76 115 139 137 106 92 87 77 67 59
73 57 48 42 36 39 43 44 47 62 60 68 65 64 55 63 75 81 87 92 86 87 89 94 99 100 101 90 85 71 73 79 84 91 112 112 142 117 95 76 70 64 59
89 73 58 56 50 59 57 77 71 64 71 73 70 59 52 59 73 86 84 87 94 97 103 111 118 121 122 111 91 83 85 88 90 101 102 111 113 128 93 84 81 70 63
99 94 75 77 68 67 79 99 107 90 92 87 84 78 63 60 69 83 94 98 95 115 121 126 130 135 124 117 114 111 109 99 98 107 110 109 100 98 110 99 89 77 63
95 93 95 89 69 61 88 121 130 91 102 84 96 96 78 83 78 82 91 104 106 125 132 134 142 132 129 128 127 134 121 115 112 124 114 120 117 107 93 128 126 103 85
124 121 124 114 98 89 98 129 160 155 110 125 104 104 107 108 98 104 110 103 114 140 144 164 148 146 136 140 150 138 132 129 125 123 128 126 123 117 99 98 99 101 111
150 156 146 161 149 139 166 202 197 205 172 163 162 120 112 103 121 117 131 131 134 150 149 158 157 165 187 178 189 154 142 133 129 135 138 127 131 121 115 103 96 96 102
148 175 189 176 178 195 197 219 208 178 165 142 148 149 129 115 112 141 155 196 162 167 161 172 198 218 198 201 185 164 138 126 138 137 142 134 130 133 124 116 114 110 114
198 192 177 187 190 187 197 232 244 237 260 202 168 151 167 135 160 165 156 215 213 214 222 218 231 238 253 206 188 182 186 150 136 149 154 158 150 155 145 137 134 139 140
216 211 217 198 171 156 149 186 177 209 224 214 189 165 177 176 174 199 173 182 220 274 242 275 300 265 257 251 249 194 223 219 151 145 145 144 156 154 157 169 155 161 163
171 163 148 144 151 146 161 175 185 170 162 151 145 119 115 124 158 175 209 208 213 244 269 280 300 291 293 261 300 319 215 215 212 208 185 177 162 163 176 186 192 188 187
132 129 134 146 147 141 122 112 149 179 161 154 154 147 133 133 134 140 179 191 242 273 245 290 299 316 343 302 266 310 311 301 262 276 229 219 172 193 250 267 240 223 210

GFSSE_con_3kmhel_045.txt.gz
Helicity
55 61 30 7 2 2 1 11 19 31 39 56 56 60 58 55 41 26 13 1 -2 -6 -4 20 35 32 25 23 29 34 35 38 23 13 6 3 17 34 40 35 37 48 60
79 63 44 28 3 -4 -23 0 19 48 56 69 63 49 42 36 23 15 4 -9 -8 -36 -14 -5 14 19 20 17 22 21 17 22 9 -24 -40 -9 27 34 33 44 72 54 57
84 77 35 29 12 4 -2 7 43 53 60 56 49 42 26 19 11 7 8 -8 -6 -18 -13 20 40 25 17 20 16 15 15 13 -4 -32 -39 19 32 32 31 32 25 30 34
90 59 46 53 21 9 32 18 35 53 57 56 42 35 14 12 10 10 28 45 51 41 36 53 35 25 20 16 16 21 22 10 -8 -2 14 38 46 40 24 28 20 15 15
94 41 88 67 39 25 35 26 19 30 38 43 30 18 7 7 10 20 36 43 49 47 47 40 25 14 15 16 14 14 13 0 -15 -5 37 41 25 42 47 49 19 9 19
61 51 84 58 51 46 24 17 10 5 23 47 38 20 8 6 8 23 26 23 26 26 16 11 6 11 11 9 7 4 -3 -30 -40 12 19 23 33 40 48 67 83 69 35
61 91 59 69 61 53 24 6 15 -1 36 45 33 21 12 8 6 6 7 6 11 8 4 3 7 10 9 6 2 0 -10 -36 -28 9 26 45 40 44 60 77 88 100 118
52 69 84 77 80 77 60 27 15 11 31 32 35 26 20 21 16 11 5 0 -3 -5 -5 0 4 5 2 -2 -1 -1 -10 -38 -11 19 20 39 24 44 65 69 77 91 90
42 50 67 63 77 83 60 38 37 33 24 28 39 38 39 35 29 29 21 14 8 2 2 5 8 2 2 1 2 1 -11 -38 -27 29 15 45 32 79 82 78 70 76 79
37 38 48 36 45 45 48 47 34 31 38 24 37 54 52 49 40 37 34 28 21 22 15 28 21 17 14 14 13 7 -7 -24 22 22 24 46 73 115 107 83 76 64 82
29 27 38 42 55 52 45 58 46 31 18 29 53 58 57 20 31 61 50 63 27 40 35 44 38 35 36 34 26 12 -11 7 28 28 80 91 103 118 101 92 63 62 69
24 28 38 46 62 66 68 72 38 46 36 31 53 60 12 15 35 33 86 73 52 54 54 60 50 41 16 38 35 14 6 32 29 40 118 100 97 101 94 93 81 77 68
46 40 34 43 52 60 66 62 47 43 31 52 33 35 17 36 85 64 69 66 57 56 61 65 54 37 33 45 53 34 50 40 42 58 136 113 106 105 83 76 75 73 62
72 61 51 43 51 51 57 54 52 50 50 51 51 40 57 63 71 63 77 58 62 84 71 49 63 55 66 58 56 60 58 51 47 67 142 131 130 108 89 85 78 69 62
85 69 62 47 62 57 42 51 51 57 63 49 58 62 73 78 83 72 64 96 56 81 55 83 78 95 75 76 80 74 68 60 62 81 169 157 143 110 95 83 77 71 60
103 103 85 67 61 52 38 35 52 54 59 55 71 85 84 92 80 83 80 168 87 78 80 93 101 109 102 104 101 90 79 77 82 97 169 133 140 118 99 85 74 68 60
86 75 69 61 63 60 55 67 72 58 69 73 69 74 85 102 95 90 89 143 121 74 82 93 107 134 141 129 120 110 103 85 93 108 143 161 122 133 101 86 76 68 67
139 138 104 85 72 73 77 83 97 89 91 84 84 81 74 80 93 116 131 131 121 90 117 115 121 139 148 151 147 138 119 110 108 116 131 156 131 94 107 103 87 79 75
83 101 106 114 96 80 77 83 109 114 114 94 98 101 86 77 83 114 136 132 141 159 150 136 144 151 164 171 161 161 140 131 121 131 144 135 142 135 97 152 133 122 90
90 109 114 112 87 94 102 103 162 173 140 139 98 118 95 119 111 127 127 129 133 177 196 182 150 176 176 186 171 177 160 147 144 139 140 156 156 147 152 165 154 134 119
146 133 128 120 124 113 140 150 214 195 184 169 177 110 133 129 134 163 163 130 148 168 188 184 158 180 210 227 251 216 194 148 147 162 154 177 166 159 156 175 129 125 129
128 132 129 132 135 150 165 198 198 233 194 203 196 178 159 181 161 158 174 173 174 197 184 198 199 216 250 278 321 231 214 172 145 158 165 176 169 182 154 168 146 148 141
189 201 172 168 178 193 202 223 248 289 251 230 225 250 202 151 186 164 186 193 193 227 250 253 259 244 305 299 274 314 247 214 185 142 165 174 156 195 171 173 164 173 173
183 177 169 161 149 150 158 179 196 221 252 255 231 205 138 111 130 164 170 186 213 228 252 271 307 305 340 343 308 230 332 333 221 184 147 126 136 167 189 185 186 200 217
171 166 157 138 124 121 100 104 137 162 192 214 208 154 151 162 125 104 126 186 206 256 230 275 302 348 381 358 375 397 315 321 304 287 238 179 172 176 189 184 226 227 228
129 124 119 120 119 112 111 100 86 98 130 159 185 176 172 154 157 163 146 166 207 240 231 266 265 317 377 353 345 386 378 398 362 374 314 237 213 172 222 260 269 263 273

GFSSE_con_3kmhel_048.txt.gz
Helicity
54 68 55 33 34 21 18 22 26 23 37 53 57 55 46 38 31 24 12 6 5 3 13 26 27 17 14 24 28 34 30 30 -1 -21 -7 14 33 41 49 83 42 47 66
99 62 62 42 43 17 5 8 28 33 46 55 53 57 30 28 22 10 -0 1 -17 -6 2 17 18 17 21 25 31 28 21 3 -18 -40 -35 12 23 37 39 50 45 41 55
76 79 53 45 32 16 12 17 33 29 55 50 42 38 14 13 12 11 -7 7 -2 -5 8 34 25 20 19 19 24 24 16 2 -7 -32 -49 -20 12 36 35 30 26 33 32
105 59 43 51 43 35 39 33 24 31 43 48 39 30 9 10 13 30 39 38 24 26 47 43 27 20 17 13 12 14 4 -0 31 45 5 20 37 44 28 15 20 31 29
68 51 77 61 57 52 42 37 20 18 28 30 17 13 5 9 15 35 46 47 44 48 50 31 19 13 14 10 10 8 -3 4 16 18 35 44 4 40 52 66 24 34 42
45 162 81 85 71 63 49 34 14 -7 27 18 14 14 8 11 20 30 30 32 33 33 27 17 13 12 9 6 3 -7 -27 -23 -14 -8 28 25 21 44 63 92 95 103 72
175 129 101 84 80 77 51 23 -9 14 30 34 15 13 9 13 23 21 20 15 17 17 17 13 14 11 6 2 -3 -15 -41 -43 -37 15 23 21 30 50 62 78 91 109 112
110 64 100 89 79 70 61 24 10 39 24 28 22 23 22 20 19 15 15 18 19 14 12 12 9 5 -1 -5 -9 -20 -44 -43 -5 35 17 22 43 66 65 73 91 82 93
74 89 78 108 105 96 88 81 35 36 23 48 33 32 37 35 27 27 26 21 20 20 23 20 12 5 1 -1 -4 -14 -32 -15 10 24 62 29 66 71 69 69 71 66 84
68 100 56 85 82 87 81 78 75 58 50 46 36 53 56 42 36 40 36 31 29 34 31 31 24 19 15 14 8 -8 -19 -9 9 27 47 46 92 111 74 71 64 63 66
52 82 20 46 41 57 85 72 72 65 51 44 42 46 53 29 25 47 25 51 28 37 49 51 43 41 43 35 22 1 -7 15 25 74 82 109 114 112 87 75 72 60 62
53 55 47 28 59 69 66 98 68 60 53 43 66 51 37 12 37 37 79 64 51 63 70 64 55 50 43 41 36 18 23 19 42 119 89 118 117 107 100 90 81 78 66
26 75 62 73 87 71 114 73 49 68 40 50 79 61 13 1 106 124 109 77 72 65 71 79 64 49 34 42 62 51 51 66 48 141 115 127 121 107 87 80 79 77 72
43 57 114 113 114 97 94 89 47 72 28 99 80 49 15 3 124 123 113 82 80 93 71 75 82 61 45 71 84 76 99 68 72 163 145 150 139 113 92 80 80 78 74
82 86 93 119 116 96 100 88 58 79 95 52 86 45 -4 73 125 138 141 135 103 120 82 90 80 78 113 86 76 100 115 92 91 175 165 179 175 135 101 89 82 82 76
99 90 106 84 105 86 91 85 74 88 106 96 84 85 80 137 146 127 132 152 107 125 83 106 133 147 127 119 114 104 113 107 107 205 210 189 171 147 113 92 88 84 78
71 67 119 126 95 103 81 70 78 98 92 110 84 113 100 112 140 131 123 188 174 128 143 156 169 174 167 156 141 138 141 134 141 185 190 205 172 152 127 100 91 88 82
134 150 124 126 107 107 88 97 93 68 124 132 119 119 132 115 136 158 164 178 197 172 133 205 218 231 204 190 180 159 169 160 160 149 219 205 184 169 147 121 102 91 90
121 152 200 188 157 94 52 123 162 137 106 89 120 118 147 169 157 147 166 174 200 187 127 194 237 258 248 220 197 175 195 182 171 171 186 223 177 171 152 148 142 120 98
120 85 90 128 136 149 146 159 192 186 178 159 118 112 147 209 207 212 193 170 199 215 172 235 283 281 256 209 220 215 227 203 184 172 192 211 232 223 188 213 203 183 137
252 246 252 242 218 185 169 186 238 262 210 197 202 125 108 160 207 228 252 242 214 215 240 288 311 295 258 255 289 282 291 209 204 182 198 218 236 235 263 252 214 198 170
131 175 185 157 167 167 173 161 173 217 251 263 250 191 125 182 234 252 254 280 249 253 261 303 330 362 322 311 357 381 284 263 206 208 226 237 242 260 246 244 201 187 180
207 214 201 199 195 198 224 221 201 198 294 335 296 244 192 145 179 241 226 265 263 257 278 314 351 376 368 346 376 357 273 271 253 217 211 232 257 285 255 225 216 205 200
118 152 166 157 146 140 137 148 164 164 175 244 254 192 172 154 162 115 130 218 246 249 231 282 358 418 458 417 425 302 354 322 274 239 209 185 214 243 248 222 206 215 286
114 128 145 151 144 120 121 120 115 112 116 123 162 188 204 197 166 136 99 111 203 249 229 265 302 391 436 480 466 488 362 380 350 368 295 262 229 236 260 254 259 259 312
114 120 119 122 126 133 105 96 91 91 94 97 109 137 153 183 201 204 195 149 111 162 196 226 273 309 365 435 467 488 442 425 430 446 411 356 281 267 320 308 284 361 306

GFSSE_con_3kmhel_051.txt.gz
Helicity
33 31 21 26 20 27 35 37 35 39 47 55 53 45 40 30 22 16 19 19 13 18 28 35 26 24 31 40 53 51 45 38 9 0 24 35 45 47 62 41 41 48 74
80 42 49 38 21 27 27 31 31 31 45 45 47 40 25 24 15 10 10 0 9 20 19 18 16 21 22 31 34 31 31 27 32 26 41 33 25 30 34 40 42 43 56
105 58 40 52 44 27 21 20 14 33 42 35 27 27 10 12 5 -16 15 2 -3 20 41 26 23 22 17 21 25 28 40 41 24 8 6 1 17 30 29 27 35 38 33
103 73 56 62 50 38 36 18 -3 26 40 26 27 8 0 6 16 28 25 18 20 48 45 31 26 17 10 6 10 9 23 26 8 -33 -33 1 23 36 19 30 35 46 29
97 79 61 74 65 54 43 25 9 21 40 31 17 6 4 12 31 39 43 46 41 45 40 28 21 10 4 -1 -8 -13 3 18 26 5 17 0 15 43 62 28 36 46 73
102 91 82 73 71 61 51 34 21 15 3 16 14 10 9 22 27 31 32 34 31 28 20 21 14 5 -1 -9 -20 -26 -10 12 8 7 19 17 24 53 77 92 92 94 85
107 94 90 77 76 64 42 24 11 20 14 16 21 14 14 26 25 22 20 22 20 19 20 17 13 3 -5 -11 -22 -33 -29 -3 -6 15 13 12 29 53 70 79 92 91 83
130 113 87 84 77 64 52 32 32 39 32 19 14 22 21 29 24 20 18 19 19 20 21 20 14 8 0 -7 -19 -34 -23 -15 13 16 10 19 50 46 58 67 72 86 83
112 95 76 61 61 72 69 53 44 42 50 38 25 24 25 22 23 29 29 28 27 26 22 18 13 9 5 -2 -11 -13 9 17 40 21 33 20 57 67 59 63 55 67 77
63 65 86 93 93 102 95 93 77 54 58 57 39 39 38 29 23 31 29 35 39 37 33 27 22 20 15 10 1 0 20 18 53 64 41 44 92 84 62 60 61 62 75
58 43 48 86 94 104 94 86 85 81 81 65 58 50 46 21 22 26 30 43 40 50 45 44 40 40 35 29 17 11 31 33 66 71 70 108 117 101 75 70 67 73 69
60 29 18 36 39 71 79 92 89 84 87 80 75 55 48 47 32 23 24 40 44 44 66 58 57 55 58 45 37 32 39 45 78 91 98 133 136 118 98 79 84 73 71
105 69 31 32 19 59 75 78 82 81 77 76 74 57 38 54 43 47 57 53 64 76 72 72 64 58 62 71 59 62 59 64 98 108 105 126 135 127 109 89 83 77 74
52 71 99 73 56 111 117 87 69 74 63 75 46 48 39 69 81 84 97 90 97 85 77 75 74 61 61 71 70 87 88 97 120 129 121 141 137 132 114 96 92 86 80
62 65 101 145 110 133 146 92 98 67 72 72 75 45 48 57 104 139 100 102 90 98 104 88 81 81 72 79 101 107 111 114 144 168 157 153 151 138 116 100 94 92 82
57 76 83 125 159 133 163 108 98 102 59 103 94 81 55 51 101 143 139 135 119 118 93 93 97 91 87 107 113 107 114 117 156 175 176 165 168 153 132 106 90 91 91
79 73 75 86 131 141 152 144 95 95 129 103 129 111 90 79 103 176 175 172 166 154 99 98 84 126 125 146 137 132 135 130 171 193 200 197 168 158 144 119 103 90 87
83 127 114 79 100 125 121 120 129 120 130 157 113 117 108 117 137 155 175 171 170 182 170 154 154 186 201 198 178 145 148 153 178 184 209 209 191 173 148 127 114 101 92
99 119 125 144 124 106 99 81 94 98 110 145 155 122 101 143 144 161 180 188 206 190 172 190 196 255 260 233 209 180 162 166 167 236 218 219 198 187 178 143 142 127 117
182 184 166 153 120 126 117 86 83 96 94 106 130 164 147 160 181 201 201 206 246 241 196 215 230 246 284 281 251 211 190 181 196 214 271 246 228 215 194 185 178 166 165
272 311 286 235 247 224 217 198 174 141 155 142 123 91 109 172 182 211 239 218 271 282 242 218 256 269 283 355 353 278 252 209 214 210 233 285 259 240 230 231 230 228 207
212 233 246 240 235 244 229 224 228 210 201 188 166 151 137 157 188 241 202 262 259 285 282 267 292 361 368 424 399 371 288 285 248 231 251 265 301 324 297 282 269 245 230
171 148 159 185 187 167 170 175 186 188 226 224 232 211 175 153 142 154 178 232 242 281 251 259 306 407 372 422 428 391 316 287 246 256 246 284 294 357 378 342 281 262 238
89 140 161 177 175 156 125 110 114 116 119 144 157 153 164 159 131 125 122 163 219 224 239 247 270 309 449 408 450 388 426 327 254 221 211 217 277 290 320 338 295 249 231
126 144 162 179 192 191 169 149 136 119 95 88 117 152 131 144 140 134 122 124 145 178 216 241 263 292 320 368 480 473 457 473 392 338 247 260 275 295 289 279 306 276 282
120 130 139 154 154 161 151 138 134 124 121 115 105 108 109 117 115 115 127 143 148 150 151 194 190 206 249 266 357 471 470 435 369 399 345 318 302 307 301 291 338 314 313

GFSSE_con_3kmhel_054.txt.gz
Helicity
1 -10 13 23 19 20 33 45 56 60 64 66 63 52 40 29 24 23 22 14 21 37 45 38 32 35 46 68 79 81 97 100 70 53 50 45 42 45 39 40 54 34 44
27 4 16 26 19 6 17 42 49 49 48 57 58 47 26 19 15 15 14 33 40 24 21 17 19 24 38 55 68 82 86 63 48 48 33 26 24 34 38 36 40 47 50
58 23 13 28 24 15 14 23 34 33 42 42 35 37 14 6 -1 17 11 9 16 37 24 22 19 13 23 39 53 62 49 32 22 15 26 10 10 27 26 29 24 23 21
90 44 21 45 33 23 15 10 5 33 44 38 32 15 5 -1 6 26 15 12 46 45 32 28 18 3 -2 14 38 41 33 15 -16 -27 -6 5 11 25 26 24 29 15 5
118 71 59 67 44 29 23 16 25 18 31 25 17 11 13 13 28 27 25 46 48 43 29 25 12 1 -4 -0 14 22 17 1 7 20 3 4 18 29 29 35 42 67 55
137 103 64 79 49 43 47 58 54 33 -12 -13 9 12 24 27 43 30 47 38 32 22 24 18 8 -1 -11 -17 -12 11 15 24 18 -7 -3 19 21 59 77 65 74 68 94
130 107 78 75 56 53 57 56 49 34 -0 -35 -4 18 30 39 32 34 37 29 22 20 22 18 8 -2 -15 -24 -22 2 11 23 15 7 18 23 32 60 67 75 74 68 85
105 100 80 72 62 51 50 47 41 27 18 8 -10 3 12 20 25 28 34 27 22 24 26 22 12 1 -10 -20 -19 -8 13 15 28 14 19 23 40 45 49 51 69 74 73
91 83 82 59 49 56 51 48 34 38 42 28 23 8 2 2 -0 10 22 23 22 29 31 25 15 6 -3 -10 -3 9 28 46 46 24 34 38 69 69 56 58 56 60 73
91 81 66 55 56 61 64 53 38 54 66 52 33 38 38 20 3 5 8 4 15 22 31 30 26 19 11 6 12 31 59 66 60 52 57 45 87 84 52 59 60 63 73
63 50 55 68 87 85 74 62 64 73 68 60 57 52 39 18 18 15 6 11 14 19 24 28 27 24 22 19 24 40 67 70 60 63 64 82 92 101 84 75 76 69 75
40 13 41 68 96 98 84 96 88 86 87 83 73 56 47 38 27 33 32 29 22 27 30 33 31 31 37 25 26 36 67 83 84 75 81 108 104 101 95 84 84 75 77
19 29 13 44 73 80 73 83 84 95 99 95 78 67 50 54 53 44 39 37 44 39 47 47 53 51 44 46 49 51 54 73 100 83 94 121 114 107 106 96 81 73 72
80 43 5 -11 47 49 81 74 67 93 100 101 69 60 73 68 67 53 42 44 56 73 81 85 80 67 62 60 64 68 56 84 96 97 91 113 116 112 112 106 95 81 75
79 69 65 45 46 49 75 73 80 79 94 85 80 59 79 69 78 83 62 69 70 89 95 94 88 81 79 78 82 89 73 99 93 116 122 110 126 121 106 108 95 86 84
73 76 91 92 103 123 99 92 83 92 83 93 76 63 66 87 100 107 92 78 81 97 94 101 96 92 85 100 87 109 94 112 114 131 141 137 137 139 113 105 97 85 80
53 74 102 113 147 169 134 115 124 97 111 107 90 85 95 101 118 140 140 132 121 125 120 121 96 102 101 109 108 117 132 123 140 144 169 177 169 158 136 101 105 96 84
80 61 58 111 158 180 194 170 181 159 127 109 117 97 86 97 133 155 164 175 181 181 164 167 144 133 127 140 154 121 149 155 148 152 182 188 200 196 158 114 110 105 90
56 69 77 97 124 125 153 178 158 144 164 145 139 137 104 103 121 156 160 184 224 210 204 206 184 198 177 194 198 160 175 170 165 177 189 200 210 219 214 141 130 126 117
156 159 149 113 104 122 131 129 132 128 108 118 138 140 137 148 147 157 190 187 227 240 218 251 226 241 225 231 246 216 203 179 190 206 224 226 237 235 230 201 188 177 163
251 254 270 242 229 169 175 155 139 129 114 123 125 125 130 154 173 183 156 172 231 243 215 244 268 239 220 264 318 259 252 206 192 226 252 261 260 263 262 245 227 218 210
234 243 248 236 234 233 216 209 202 174 135 103 105 119 134 137 142 195 200 195 213 210 235 266 296 290 260 307 340 369 294 262 239 241 307 305 285 309 291 271 257 239 238
194 204 197 203 197 171 180 218 230 225 216 204 186 142 116 125 142 161 169 176 179 216 234 242 262 288 236 290 323 332 285 256 234 207 223 295 315 339 324 346 313 280 254
137 142 160 178 203 216 203 174 164 156 154 156 154 148 143 134 135 141 138 163 171 199 195 204 223 260 296 272 323 264 355 319 264 226 209 175 225 266 301 344 341 324 282
113 132 169 197 221 228 212 174 147 146 127 121 118 122 133 148 153 129 131 132 159 176 176 190 194 235 280 244 316 302 295 379 387 371 266 276 243 257 293 295 329 336 321
156 177 190 196 198 196 186 179 168 159 150 145 144 149 144 120 139 177 154 122 125 144 158 178 162 194 197 208 235 241 280 291 270 414 357 306 318 209 233 277 305 346 375

GFSSE_con_3kmhel_057.txt.gz
Helicity
-56 -53 13 11 14 12 28 43 63 75 85 86 73 66 52 40 34 29 18 20 21 45 40 26 30 50 89 104 112 97 90 83 60 54 46 40 42 35 31 55 36 14 30
-13 -33 9 10 8 -1 5 26 45 55 57 55 52 51 38 31 27 21 19 29 26 24 20 19 25 42 61 73 81 83 73 64 60 48 36 28 25 34 29 31 35 31 42
20 -1 -6 8 8 -3 0 6 32 46 56 63 50 40 20 21 16 12 12 25 33 26 21 16 18 24 36 50 55 52 36 26 22 31 25 7 4 24 21 15 9 14 20
31 17 -2 16 13 22 9 -4 0 29 56 35 27 18 9 11 12 8 1 24 33 26 20 11 1 -4 16 35 31 22 10 -5 -14 -3 1 2 -16 15 14 24 12 3 15
57 34 17 35 36 21 10 3 17 6 -8 9 11 7 -2 16 24 15 29 54 39 26 18 7 -2 0 13 20 14 -1 -10 -2 10 9 -2 1 1 5 22 34 57 52 29
93 30 69 54 38 28 24 32 32 5 -27 -35 -20 -1 -13 12 23 26 43 39 25 16 12 5 -2 -5 1 10 3 -6 -16 21 12 -6 -8 19 30 58 47 53 47 76 84
111 58 74 80 52 52 53 50 38 21 -1 -35 -35 -20 -14 6 18 17 22 5 1 3 3 1 -6 -14 -12 0 2 11 9 27 10 -4 8 15 20 53 67 59 66 62 65
134 109 83 81 62 63 52 48 38 23 18 8 -17 -28 -22 -2 2 12 12 5 -2 4 4 1 -7 -14 -21 -18 -6 -4 6 35 23 13 10 11 25 41 40 56 61 58 65
123 114 95 70 61 62 48 44 38 27 24 24 23 18 -2 -30 -20 -4 0 -3 -2 2 3 -1 -3 -7 -13 -17 1 12 1 52 43 27 24 29 48 47 40 46 50 53 59
99 82 68 71 64 62 47 41 40 33 37 39 20 13 34 31 31 20 -1 -11 -3 -1 0 -2 -6 -7 -7 -5 3 40 33 48 55 45 40 43 65 67 56 56 49 50 52
109 81 65 58 46 66 59 44 42 44 53 50 44 36 35 19 19 24 27 22 21 19 16 13 6 5 3 8 15 47 52 43 47 46 53 43 63 90 81 77 68 58 55
45 33 43 50 61 97 79 63 64 67 64 62 56 47 43 41 38 33 28 31 32 34 37 32 24 22 22 30 35 50 61 52 52 56 54 58 75 82 85 84 76 66 63
18 22 10 26 45 101 86 80 81 87 86 76 69 62 54 58 54 51 48 39 37 37 43 49 46 51 50 54 57 68 77 66 66 72 65 68 84 87 86 84 72 69 69
48 15 20 24 31 65 81 76 84 102 100 95 74 76 79 66 57 53 53 44 43 51 58 66 68 62 59 62 71 71 85 84 91 95 89 81 91 90 94 92 81 72 66
57 28 23 36 18 30 55 69 78 85 104 95 86 82 89 81 64 62 50 54 50 60 68 79 79 75 71 68 74 79 76 91 98 108 109 83 96 104 100 90 81 72 69
64 56 43 42 42 59 55 55 58 86 84 93 81 73 86 89 80 77 63 67 66 73 71 84 92 95 87 89 73 78 70 96 100 102 112 100 90 110 97 85 81 80 76
74 86 83 66 87 105 89 73 77 79 94 89 71 69 86 100 95 94 89 87 88 103 92 93 85 96 93 95 83 77 88 84 107 114 124 125 123 112 115 78 71 67 72
63 73 97 117 118 142 126 109 108 106 125 113 104 104 93 98 115 120 124 121 124 142 142 130 123 126 133 133 130 110 120 114 114 124 147 157 162 164 143 114 88 70 69
18 37 69 106 142 148 154 166 169 141 148 139 138 129 114 118 124 136 153 162 189 177 185 181 172 183 173 169 163 145 146 148 143 143 163 172 182 203 215 162 127 115 106
83 65 50 82 108 124 167 182 168 155 140 146 137 125 113 125 140 164 154 161 181 193 196 224 193 212 220 195 186 169 165 165 171 173 186 191 211 226 249 233 204 179 136
210 178 172 142 157 149 172 171 159 146 142 141 138 128 140 132 130 154 167 185 208 207 175 193 238 223 219 273 262 194 171 183 199 202 228 218 215 243 263 256 249 237 202
209 205 205 210 209 190 173 164 163 151 137 129 122 119 128 130 132 149 159 165 178 213 205 201 225 250 245 264 255 257 188 164 198 217 252 248 243 285 276 282 285 276 252
177 167 176 191 205 204 195 186 198 193 185 180 157 129 131 127 129 147 163 175 177 203 202 202 245 256 200 228 251 239 211 175 170 164 142 173 200 262 258 260 267 283 286
159 168 161 162 174 187 199 200 193 181 173 165 163 155 141 141 123 121 131 153 169 202 205 186 191 208 235 199 238 212 275 294 205 180 180 166 142 153 195 244 248 242 280
164 175 189 195 208 197 192 184 192 198 191 175 162 164 165 163 177 182 169 146 146 168 165 173 181 176 190 194 233 245 207 250 265 244 152 182 191 152 149 179 183 220 230
179 175 177 186 205 206 202 191 164 147 141 143 137 133 135 134 153 184 183 161 135 132 132 142 152 160 178 174 173 193 194 195 187 203 205 198 204 207 183 191 235 244 248

GFSSE_con_3kmhel_060.txt.gz
Helicity
-96 -77 -22 -17 -9 11 37 47 54 68 70 62 61 50 39 34 29 24 17 19 30 27 14 17 34 87 105 110 94 91 81 62 47 37 28 31 29 31 45 35 23 4 22
-30 -60 -18 -21 -7 -8 3 22 33 40 41 43 34 30 25 25 21 16 11 22 18 14 13 17 28 39 58 67 76 63 48 41 34 28 21 10 22 27 21 19 21 18 27
16 -21 -22 -17 -10 -12 -22 -20 -5 8 30 31 27 18 14 13 14 16 31 28 19 10 8 12 6 5 21 30 28 25 21 20 17 7 -1 -8 -5 15 11 -1 1 11 14
19 10 -26 -5 -4 -5 -7 -20 -34 -4 10 13 11 6 7 1 4 3 21 22 15 7 4 -1 -12 -13 1 2 -3 -6 -12 -14 -9 -13 -20 -18 -24 2 17 26 4 7 6
56 27 -5 5 19 20 1 -12 3 -32 -35 -31 -15 0 6 -1 2 1 21 24 5 -8 -9 -9 -13 -15 -14 -24 -29 -36 -33 -15 -9 -19 -22 -18 -23 -5 9 32 52 38 12
69 44 25 30 38 27 26 41 18 -10 -49 -58 -39 -19 -20 9 0 9 28 11 -4 -12 -11 -7 -9 -15 -18 -30 -37 -39 -12 1 -9 -19 -18 -2 -2 29 37 38 41 59 57
51 31 47 51 51 49 45 36 19 2 -23 -25 -36 -52 -9 1 -5 9 16 -5 -13 -16 -15 -14 -11 -10 -12 -22 -26 -26 10 8 2 -8 -10 -3 3 31 33 37 36 40 31
58 38 54 67 70 69 58 43 30 10 3 10 5 -42 -22 -24 -20 -13 -2 -12 -21 -16 -14 -15 -12 -7 -8 -10 -10 -12 1 18 11 4 -4 -7 9 22 27 34 39 41 40
105 94 89 89 80 76 58 45 32 20 14 11 10 15 22 7 -21 -14 -19 -22 -24 -16 -11 -10 -9 -11 -10 -8 -5 -6 2 37 25 15 12 10 20 32 23 24 26 35 42
123 114 113 104 89 83 53 46 34 27 26 21 15 7 8 19 14 13 17 12 11 10 6 1 -2 -3 -4 9 14 17 30 48 40 36 29 20 29 43 46 36 30 32 32
80 83 87 99 82 72 59 38 40 36 32 37 39 42 40 26 10 -1 -2 0 14 23 26 26 20 22 25 29 47 49 51 40 46 43 45 27 33 77 69 60 51 40 37
69 61 63 92 86 68 61 52 50 51 48 47 49 54 55 45 35 30 21 19 26 33 35 32 30 35 46 42 51 60 59 51 48 46 50 35 42 68 72 64 60 51 46
21 52 51 64 78 73 74 75 64 66 61 59 55 59 57 54 41 36 37 35 37 32 38 38 43 49 49 55 56 61 65 68 62 58 55 44 42 57 74 69 66 56 53
40 26 29 29 46 58 76 84 77 75 69 68 65 69 67 59 49 45 45 44 47 46 40 47 57 53 50 55 63 68 71 71 68 64 63 49 43 47 67 63 62 59 56
54 34 25 29 24 40 52 71 75 73 82 78 79 75 79 67 53 54 43 47 49 51 49 52 62 63 59 59 61 65 69 66 68 72 78 59 58 58 66 66 66 57 55
55 39 35 27 28 51 50 55 63 76 78 87 83 82 85 79 68 66 57 53 53 65 71 73 75 73 67 68 56 61 59 73 79 81 86 79 66 72 79 74 66 57 52
57 48 51 43 46 62 61 66 75 73 83 84 82 93 89 83 72 73 74 74 71 79 74 77 73 81 81 85 78 70 77 71 84 87 93 96 95 82 92 81 75 64 52
71 51 57 63 68 93 96 98 107 107 110 96 100 101 101 102 103 100 94 86 91 102 112 117 116 109 112 119 121 106 112 106 99 101 114 113 121 130 118 111 92 83 73
62 71 73 92 102 107 111 122 126 127 131 121 117 114 105 111 123 127 123 111 124 124 131 138 135 160 151 153 154 144 138 129 127 126 136 140 135 148 170 142 122 113 107
59 55 62 68 82 100 118 133 130 139 141 139 122 119 110 111 131 150 138 143 169 156 145 170 155 176 180 173 175 164 161 155 140 148 153 177 175 166 173 177 170 155 132
111 94 102 89 105 127 146 145 137 133 133 131 127 120 119 117 113 127 140 145 174 171 157 173 199 177 175 209 215 178 176 144 141 158 174 191 189 202 200 205 209 206 181
147 171 178 162 150 143 159 159 156 139 131 135 113 106 106 115 124 140 138 138 152 172 172 176 218 213 208 227 222 201 147 118 111 106 136 153 153 183 184 197 199 200 193
139 175 193 188 174 170 162 174 187 184 172 164 157 151 165 165 149 138 138 151 162 188 174 177 213 211 189 197 202 210 185 155 140 123 105 109 123 137 148 171 181 194 184
138 165 182 193 183 176 168 164 161 153 149 158 162 166 168 174 165 162 146 140 146 173 183 185 193 195 220 171 208 171 213 237 178 155 173 134 110 115 118 137 134 142 174
148 148 160 178 193 194 193 175 159 155 153 159 164 172 166 163 167 177 180 174 150 146 138 154 175 178 198 218 220 198 157 181 191 171 147 148 150 119 123 121 113 135 153
235 205 165 154 163 171 170 172 162 150 151 153 149 148 150 147 160 171 159 150 141 133 124 131 146 161 169 179 187 191 183 171 140 161 171 152 152 135 145 132 127 155 159

GFSSE_con_3kmhel_063.txt.gz
Helicity
-112 -82 -58 -26 1 24 42 49 61 57 44 37 30 27 25 11 -0 -15 10 14 4 -8 7 39 63 80 90 78 53 44 30 26 19 14 12 4 16 31 25 17 6 15 27
-47 -63 -50 -41 -19 -4 19 35 42 36 26 14 10 6 3 -5 -11 5 9 5 -4 -8 -4 -5 21 37 36 29 22 17 16 13 7 -0 -8 -5 -1 2 -1 4 9 11 9
2 -50 -48 -33 -26 -28 -21 -10 5 3 4 -10 -21 -16 -15 -9 -11 11 9 -1 -8 -7 -5 -18 -16 -8 -2 -3 -7 -9 -8 -11 -18 -20 -25 -16 -7 -2 -4 5 5 -0 -1
-2 -34 -44 -25 -27 -31 -35 -51 -38 -22 -22 -32 -28 -23 -21 -16 -9 11 2 -5 -13 -10 -13 -26 -28 -23 -23 -26 -29 -31 -28 -26 -23 -27 -24 -23 -21 -7 2 10 -1 -3 -13
9 -27 -35 -11 -17 -12 -31 -19 -28 -62 -65 -48 -38 -19 -20 -18 -17 3 6 -7 -16 -17 -22 -32 -36 -35 -37 -40 -41 -35 -18 -9 -21 -16 -10 -13 -21 -7 13 29 33 23 29
31 -6 -13 -5 13 11 -8 11 -22 -51 -57 -71 -56 -47 -10 -15 -17 17 5 -8 -13 -15 -19 -28 -32 -35 -42 -48 -48 -27 -10 -6 -16 -19 -18 -11 -2 8 17 17 17 20 37
57 20 7 26 33 47 36 17 -11 -22 -33 -47 -75 -69 -12 -21 -10 4 -9 -20 -18 -16 -16 -19 -22 -26 -35 -39 -34 -16 -8 -3 -7 -8 -9 -7 3 10 5 9 9 9 10
69 46 37 57 45 61 49 24 5 -6 -16 -21 -29 -39 -13 -21 -13 -11 -22 -28 -25 -17 -13 -13 -11 -12 -22 -25 -21 -16 4 4 -0 3 4 8 16 22 16 12 14 18 19
61 53 56 58 51 73 60 40 22 6 -6 -11 -19 -20 9 -11 -15 -7 -11 -15 -21 -20 -17 -14 -8 -6 -7 -9 -7 -10 14 16 7 12 13 18 11 28 28 21 22 22 22
91 91 108 77 61 60 50 49 39 28 15 15 11 25 28 17 5 9 2 -8 -7 3 3 8 15 19 23 28 35 35 40 39 27 26 25 24 13 41 49 41 35 32 29
123 129 124 94 76 66 62 55 48 44 37 35 36 39 36 21 23 15 8 1 6 9 8 12 20 29 38 36 36 40 41 35 35 31 30 20 3 50 52 50 44 40 38
86 114 118 95 80 74 70 58 58 56 50 46 43 48 40 35 34 31 26 20 20 22 20 23 33 44 45 43 39 41 43 46 44 43 41 29 16 43 58 50 50 47 45
46 76 77 80 84 77 67 63 65 67 66 62 54 51 48 46 44 41 42 41 38 33 30 30 41 46 47 50 50 48 47 48 50 48 42 29 22 25 57 55 51 46 43
24 46 66 58 75 68 76 62 65 70 61 57 56 55 54 50 47 47 50 48 45 43 36 37 41 46 49 53 54 55 56 56 57 61 52 33 31 28 43 60 53 44 46
19 18 33 45 50 56 59 65 62 56 52 50 51 47 49 47 44 47 48 48 47 43 42 45 49 54 54 56 56 58 59 60 57 63 59 47 42 46 43 56 53 45 43
25 25 25 28 32 35 40 47 50 49 48 51 54 53 49 47 46 47 45 44 43 47 53 55 56 55 52 53 49 58 60 64 64 65 68 62 55 52 53 50 52 48 44
44 42 30 23 30 32 32 41 46 50 53 51 56 52 53 55 53 50 49 48 47 53 51 54 53 59 65 70 65 68 75 70 73 73 77 78 70 61 56 51 50 53 52
35 44 37 35 34 28 37 55 61 63 63 60 64 68 56 56 60 61 60 57 59 65 68 72 76 79 84 89 90 89 89 82 74 78 89 92 90 86 81 64 53 52 62
35 43 54 47 43 43 56 73 77 74 78 76 81 81 71 70 68 75 77 72 73 82 87 91 92 100 101 104 103 91 89 91 89 97 90 98 99 103 99 90 80 75 79
45 34 39 46 44 58 76 80 85 84 77 83 86 91 80 82 76 83 77 73 85 92 92 99 99 108 113 104 114 105 105 103 111 118 107 102 101 111 106 96 95 90 90
75 64 53 53 59 78 94 95 90 86 87 79 81 75 84 84 78 79 78 71 83 89 79 86 107 108 121 142 153 132 127 111 116 118 95 93 87 87 90 98 108 106 107
117 86 93 89 97 102 124 131 125 111 109 115 105 86 79 77 79 91 96 101 103 111 96 96 113 150 154 168 178 189 143 117 110 89 78 85 86 104 101 106 102 100 94
95 97 116 134 143 145 127 149 155 155 141 132 133 129 148 151 140 127 115 113 106 122 121 106 129 142 159 181 162 182 182 145 134 118 94 84 80 89 91 86 74 81 98
124 140 156 171 182 184 160 146 139 138 133 140 147 157 163 176 178 182 175 158 137 144 143 145 159 164 187 185 213 173 193 223 169 165 157 123 114 85 85 88 97 90 88
123 130 155 170 178 175 173 153 139 139 148 153 158 167 185 204 222 215 196 183 168 150 144 135 141 168 193 194 212 217 188 200 189 190 164 134 135 131 122 95 93 112 107
149 156 171 175 185 170 157 157 151 144 144 148 160 169 183 184 190 206 193 183 173 160 142 127 120 127 151 174 191 189 207 227 204 188 152 124 121 113 135 107 110 129 116

GFSSE_con_3kmhel_066.txt.gz
Helicity
-77 -32 -49 -3 10 15 29 31 51 40 31 23 12 3 -8 -20 -18 -8 -12 -20 -17 5 38 47 55 62 57 39 24 16 16 17 13 8 -1 -4 1 7 6 -8 -20 22 18
-45 -42 -61 -32 -11 4 10 17 36 20 7 1 -8 -16 -21 -25 -3 -4 -10 -15 -14 -5 6 28 36 35 21 9 6 9 8 0 -6 -14 -21 7 -6 -7 -1 -6 -2 7 3
-24 -45 -62 -39 -37 -28 -11 6 10 -4 -18 -24 -23 -28 -26 -25 -2 0 -6 -12 -10 -10 -10 -12 -5 -6 -10 -14 -12 -10 -14 -20 -23 -24 -30 -17 0 -9 11 0 -6 -5 -7
-21 -37 -50 -50 -48 -39 -35 -27 -19 -23 -39 -45 -43 -44 -40 -20 -1 -9 -15 -17 -14 -14 -24 -29 -27 -30 -26 -26 -28 -21 -18 -20 -30 -23 -17 -18 -2 -1 17 2 2 7 11
-17 -24 -27 -41 -28 -34 -52 -38 -48 -58 -64 -60 -58 -51 -47 -29 -2 -8 -18 -23 -21 -26 -33 -35 -36 -33 -33 -32 -29 -20 -17 -26 -39 -26 -18 -19 -5 3 14 20 13 22 36
-8 -13 -6 -23 -17 -8 -4 -24 -51 -86 -90 -69 -51 -54 -43 -36 4 1 -16 -22 -24 -29 -34 -33 -36 -35 -34 -32 -24 -14 -18 -29 -44 -20 -12 -3 -6 -3 0 0 4 10 27
16 3 -10 -20 11 10 13 -18 -43 -60 -80 -75 -130 -54 -39 -34 4 -6 -24 -25 -23 -26 -28 -29 -31 -31 -34 -30 -22 -14 -12 -30 -24 -9 -4 -6 4 8 6 3 6 8 13
49 30 20 17 27 20 20 3 -20 -27 -46 -63 -71 -37 -34 -33 -2 -10 -24 -26 -24 -24 -27 -28 -31 -35 -34 -28 -23 -15 -6 -23 -5 3 5 11 14 17 13 13 14 15 18
48 55 38 27 31 36 30 22 3 -6 -16 -31 -33 -24 -5 -5 -4 -3 -15 -26 -24 -17 -20 -19 -19 -22 -17 -8 -5 -2 13 -9 -10 7 8 16 30 23 22 24 21 20 19
65 64 58 50 30 22 27 43 32 19 10 10 24 29 23 29 10 23 6 -3 -9 -4 -2 -2 1 1 1 3 11 19 26 14 17 21 24 36 9 39 39 35 33 31 27
72 93 76 70 60 44 41 57 49 46 37 37 39 45 17 8 11 13 31 15 14 16 18 20 22 25 23 29 31 34 22 28 31 34 33 67 17 42 48 45 39 37 35
82 99 82 75 76 72 67 51 49 54 43 37 27 30 23 33 32 24 37 27 28 31 34 35 39 42 24 27 42 45 34 43 42 45 42 56 22 26 53 50 44 39 41
62 97 106 96 93 77 76 70 66 63 62 63 58 55 50 48 48 40 45 42 39 44 42 45 53 40 42 41 44 44 46 46 52 57 61 59 35 26 46 62 53 44 43
49 53 74 84 85 74 83 80 76 74 71 73 71 63 62 59 55 52 50 54 48 49 51 52 56 51 47 47 46 46 53 56 58 64 64 77 49 36 29 55 60 50 45
86 53 55 57 69 75 70 77 76 68 73 76 68 59 60 60 54 49 46 47 50 52 55 59 54 52 50 53 51 50 53 55 57 65 61 100 65 47 41 41 55 54 47
100 49 37 51 53 59 59 59 67 65 68 61 56 53 49 55 57 54 51 51 49 51 58 60 61 64 60 57 54 54 58 64 62 62 61 66 87 58 48 46 41 39 50
63 41 21 28 32 36 39 49 50 50 50 55 59 56 54 56 54 58 55 57 57 60 60 64 63 61 62 60 58 65 74 75 74 68 71 74 81 88 67 54 43 37 40
60 41 30 39 33 29 34 41 48 53 56 63 66 65 58 57 55 58 61 63 69 74 71 71 70 71 71 74 75 80 90 85 74 71 76 83 85 86 100 79 58 47 42
64 49 35 29 30 30 34 42 47 54 58 66 72 72 68 66 63 64 69 72 74 79 79 79 80 81 87 88 87 88 92 92 85 90 80 87 87 93 97 98 95 74 67
82 61 44 43 35 36 48 54 65 67 65 72 75 71 66 76 80 83 79 73 78 81 79 85 81 88 90 92 98 97 97 97 94 101 92 99 100 97 82 81 96 97 95
72 74 61 49 41 45 54 66 70 63 68 76 78 71 79 86 87 90 90 82 84 86 76 79 93 99 103 102 131 120 110 105 112 112 101 95 101 91 78 83 99 100 107
115 90 74 66 57 53 62 70 80 88 86 86 96 88 88 90 89 92 88 88 89 99 84 92 109 122 124 131 162 157 162 125 116 95 94 94 87 81 93 92 98 97 99
111 101 104 92 91 99 100 125 121 123 116 112 103 111 126 129 122 119 118 125 124 139 133 128 142 146 156 158 138 188 203 140 179 158 118 108 92 89 106 112 101 109 111
114 106 95 101 116 132 122 122 106 106 106 127 136 136 129 143 144 143 142 139 133 140 127 125 130 142 177 197 211 156 157 221 199 193 194 120 105 98 106 90 91 90 100
106 96 121 132 138 151 154 150 133 121 122 120 119 119 129 137 158 167 170 167 161 149 136 131 129 143 155 165 192 229 172 220 216 227 190 162 163 101 94 102 111 101 102
109 161 152 147 151 143 148 149 141 128 120 111 115 124 138 146 157 183 182 175 164 156 140 130 117 112 128 138 169 199 222 216 212 223 216 172 138 112 117 123 115 109 127

GFSSE_con_3kmhel_069.txt.gz
Helicity
-7 18 -3 -9 5 8 7 2 20 19 0 -2 -9 -17 -27 -22 -17 -14 -12 2 1 32 32 44 53 47 32 21 13 14 16 13 5 -2 3 0 -3 0 -6 -6 3 7 3
2 -2 -28 -19 -9 -8 6 -5 12 8 -5 -15 -22 -28 -28 -17 -2 -8 -11 -10 4 24 31 34 39 25 13 9 5 4 1 -4 -24 -20 -19 -11 0 6 -5 -10 -11 -1 6
5 -17 -55 -45 -29 -25 -5 6 14 -5 -16 -27 -30 -27 -28 2 -2 -9 -14 -14 -13 -4 -2 4 4 0 -3 -11 -11 -11 -8 -16 -29 -25 -12 -13 -3 17 5 0 -1 0 7
0 -24 -50 -59 -44 -36 -7 1 -7 -17 -27 -36 -40 -40 -34 -7 -12 -13 -13 -14 -19 -27 -29 -21 -19 -15 -21 -22 -18 -15 -18 -32 -19 17 -13 -2 6 19 8 13 21 34 30
6 -34 -17 -61 -47 -26 -39 -38 -34 -37 -41 -43 -52 -56 -26 -13 -13 -13 -17 -20 -27 -35 -38 -30 -26 -22 -26 -23 -18 -18 -25 -42 -47 -27 -8 -5 -9 -3 5 12 12 19 25
15 0 -11 -32 -20 -31 -26 -55 -75 -79 -69 -52 -53 -53 -43 -6 -4 -17 -18 -20 -28 -31 -30 -28 -24 -25 -27 -24 -19 -24 -38 -61 -66 -29 0 10 -3 -3 4 7 11 14 18
31 33 -4 -7 -9 -12 -22 -39 -66 -94 -97 -74 -64 -58 -47 1 -9 -24 -20 -16 -16 -19 -20 -22 -25 -24 -24 -22 -18 -19 -33 -51 -28 -14 0 16 10 13 9 10 14 16 20
54 25 19 18 12 -10 -22 -29 -37 -53 -78 -106 -86 -59 -67 -12 -8 -22 -23 -19 -16 -16 -17 -20 -24 -24 -25 -24 -22 -18 -27 -42 -12 6 9 34 21 19 18 18 17 19 22
57 38 37 29 14 10 -2 -10 -9 -22 -31 -22 -30 -29 -41 -24 -21 -18 -21 -21 -19 -17 -16 -15 -15 -13 -10 -8 -7 -7 -4 -22 -9 22 17 63 40 34 32 29 29 28 25
69 86 48 40 17 6 8 15 15 12 11 25 32 28 23 20 14 0 4 1 1 2 2 2 3 8 10 15 19 21 16 0 17 33 42 69 51 52 50 46 45 43 38
95 60 59 62 54 34 30 43 37 39 44 46 47 31 17 7 6 11 42 31 21 23 21 23 25 28 27 31 36 32 22 31 45 55 59 91 67 53 57 55 52 51 49
103 85 109 83 77 63 61 47 37 53 36 21 23 30 8 37 45 60 70 51 40 39 36 37 39 33 23 31 59 51 37 50 55 63 85 98 73 47 63 70 63 60 56
91 94 95 94 81 106 84 65 59 61 61 56 40 43 43 56 61 47 60 54 49 50 44 51 54 34 37 46 51 42 53 53 58 72 103 109 80 56 46 75 72 70 65
64 9 49 74 100 86 110 89 75 72 75 75 71 62 70 64 69 66 67 71 66 68 51 58 51 52 53 46 45 51 59 58 56 73 80 111 89 63 49 52 74 72 66
103 106 101 85 89 91 87 99 103 88 78 75 87 76 76 80 78 78 76 71 64 65 64 62 63 58 53 54 58 54 51 51 55 74 70 120 100 73 55 46 53 68 65
91 53 37 40 58 97 92 104 92 82 76 83 82 76 68 76 76 81 84 79 71 66 63 64 64 67 67 64 63 57 56 60 66 74 78 92 108 89 70 59 54 53 61
86 74 61 54 76 64 81 83 93 93 91 82 69 60 53 64 71 81 81 79 76 71 67 71 71 74 74 71 63 64 70 71 75 72 86 93 108 109 101 78 67 65 59
99 89 74 76 69 77 95 97 87 87 74 66 56 57 56 59 66 76 80 79 79 85 84 82 79 78 76 77 78 82 87 87 74 79 97 102 114 104 122 102 92 81 72
100 80 70 65 56 50 62 75 65 55 58 59 56 60 63 63 68 77 83 87 85 94 91 87 86 84 94 94 102 105 110 106 109 107 96 103 112 140 140 135 118 106 98
108 81 65 65 47 38 46 49 73 61 50 46 52 62 64 73 81 90 91 92 96 109 101 94 92 96 114 97 112 119 120 113 119 131 120 122 136 150 149 102 107 109 97
103 85 73 59 50 53 61 62 55 77 64 66 70 74 87 94 101 104 108 106 106 113 98 94 99 121 118 109 132 131 104 97 124 121 131 123 134 140 99 101 89 94 112
116 88 85 66 62 64 67 76 67 63 57 64 73 81 82 90 99 110 112 119 127 129 109 108 129 153 155 149 182 156 172 119 110 159 166 140 115 100 113 90 83 84 109
126 118 114 103 102 87 69 90 119 141 152 129 121 105 116 146 136 161 166 164 158 162 153 157 162 170 177 190 173 206 198 176 171 220 210 174 121 115 120 137 106 101 102
146 145 132 108 99 105 113 124 105 111 108 112 158 175 145 131 140 142 135 132 131 138 136 136 146 160 168 170 175 194 194 226 198 207 242 185 128 116 112 111 89 109 94
148 125 117 110 116 109 96 106 111 121 179 204 163 134 119 122 144 151 149 152 147 162 164 165 160 143 151 162 154 150 168 176 230 222 196 206 195 149 93 128 117 139 214
160 135 118 132 134 136 129 142 142 163 162 151 141 126 122 124 126 155 163 165 159 157 158 152 137 125 121 110 126 132 154 197 191 226 222 204 188 164 181 125 133 193 140

GFSSE_con_3kmhel_072.txt.gz
Helicity
57 69 42 16 14 4 10 2 10 15 5 -3 -11 -12 -11 -9 -4 6 6 18 32 50 54 52 39 29 19 17 17 11 -0 -6 -6 -4 4 3 -2 -2 -2 7 2 3 6
72 39 26 3 -4 7 6 6 19 11 1 -16 -19 -18 -13 3 -7 -2 12 26 43 44 53 42 24 10 6 5 1 -7 -27 -23 -17 -20 -23 -4 -2 -0 3 2 -6 6 10
45 13 -16 -16 -14 3 10 13 14 2 -9 -21 -21 -23 7 2 -1 -4 -3 11 26 32 28 9 -0 -10 -12 -6 -6 -17 -41 -33 -19 2 -11 -38 -4 11 17 25 27 31 23
34 -22 -43 -44 -25 -3 8 3 -4 -11 -17 -26 -30 -16 -5 -5 -6 -9 -11 -14 -13 -7 -5 -10 -17 -17 -20 -15 -18 -36 -44 -47 -33 -58 7 -18 -9 -0 12 15 24 27 24
20 -44 -48 -62 -37 -14 -13 -16 -18 -20 -25 -33 -39 -19 -18 -8 -10 -17 -19 -28 -30 -19 -18 -18 -24 -19 -15 -14 -25 -44 -45 -19 -44 -3 -4 4 -13 -7 4 12 13 20 23
1 81 -16 -48 -38 -42 -60 -58 -47 -36 -35 -37 -39 -34 -13 3 -9 -12 -19 -25 -30 -22 -22 -20 -19 -17 -13 -13 -20 -34 -33 -23 -33 -8 15 17 -1 9 14 16 18 22 26
128 64 10 -14 -25 -48 -60 -74 -84 -73 -52 -43 -42 -34 -3 -9 -19 -13 -17 -14 -14 -12 -14 -19 -20 -16 -18 -21 -23 -35 -50 -42 -34 -0 19 13 6 19 22 25 26 27 30
78 58 24 24 -16 -33 -43 -55 -70 -86 -91 -87 -76 -62 -12 -6 -33 -21 -22 -20 -18 -17 -19 -20 -22 -21 -16 -13 -12 -14 -24 -18 -1 27 59 36 39 38 39 40 37 39 38
22 67 64 38 15 -8 -22 -37 -39 -41 -49 -82 -78 -70 -18 -31 -22 -17 -20 -18 -15 -10 -9 -7 -4 -2 2 8 14 14 -1 7 35 35 86 48 57 52 54 53 52 52 48
24 29 68 59 35 5 -8 -9 -10 -2 -3 10 8 13 11 16 13 3 2 3 7 9 10 10 13 18 19 22 30 29 17 4 20 49 98 76 73 74 72 67 65 62 56
104 93 74 32 26 4 24 13 11 18 20 30 22 12 16 19 17 17 25 30 26 28 32 36 38 39 32 35 49 47 32 42 51 70 98 105 90 76 76 73 69 69 66
101 103 92 79 69 46 47 21 12 24 25 10 20 8 -29 17 39 78 67 59 45 42 41 42 45 41 32 36 54 45 52 51 59 75 98 112 95 75 74 81 76 74 72
81 115 107 87 74 92 76 35 38 30 19 8 28 29 6 87 81 82 67 68 60 49 46 45 40 33 34 45 66 51 53 63 58 70 110 112 99 79 61 82 75 75 76
122 66 52 80 98 91 70 53 51 38 40 70 48 45 74 91 69 59 84 65 57 74 43 66 74 52 38 62 53 51 57 74 63 59 96 115 101 81 63 57 81 79 77
145 137 63 99 107 93 92 78 113 108 86 82 92 82 88 73 80 63 71 88 73 71 70 74 69 67 67 55 59 72 64 60 65 70 100 121 104 89 73 62 60 75 82
156 128 99 124 104 105 98 90 104 97 87 102 118 101 88 91 80 79 80 82 79 82 75 75 73 71 68 75 68 65 68 75 76 87 104 130 119 97 89 75 68 66 75
91 96 81 82 70 122 95 94 61 89 114 98 140 87 89 80 79 78 72 77 77 74 74 72 78 82 85 77 73 73 71 76 88 92 106 136 148 127 106 91 84 80 77
92 78 81 83 100 96 92 97 77 132 130 143 120 100 91 66 65 66 76 72 78 88 97 97 92 89 83 85 85 78 88 97 109 90 95 124 160 178 131 108 98 85 77
109 118 100 91 123 74 118 137 109 136 135 92 90 88 78 67 73 76 72 77 82 97 111 113 97 106 97 94 98 96 95 106 112 121 138 139 140 162 188 164 101 94 82
96 125 115 133 112 107 109 119 108 100 78 57 65 63 67 77 80 98 89 87 88 109 110 114 119 118 111 110 110 116 110 101 112 134 136 135 147 147 211 182 131 95 74
112 110 117 120 103 105 118 105 97 84 81 57 51 71 91 91 92 126 125 111 116 125 108 111 124 127 124 125 140 130 135 125 125 127 140 155 133 157 139 132 103 92 85
82 114 122 114 116 103 108 100 99 91 80 76 60 76 99 86 112 134 145 135 156 157 139 127 146 148 145 142 162 155 158 153 121 105 135 155 182 174 143 128 122 114 118
91 110 124 129 120 111 100 120 150 159 136 148 143 130 137 172 208 182 185 164 158 158 147 147 156 163 155 158 158 198 196 182 173 161 189 212 202 179 184 143 122 124 146
131 178 179 181 177 173 177 173 181 162 147 121 132 191 195 192 172 180 192 172 158 158 150 147 151 166 186 190 190 178 180 205 188 173 174 181 170 169 145 114 112 156 204
210 218 213 211 208 181 167 185 170 149 158 172 197 207 177 164 175 172 167 165 159 166 178 181 179 178 175 185 180 170 155 153 183 184 178 145 204 210 143 171 190 208 210
222 191 209 203 192 172 143 145 144 123 159 171 170 167 155 149 136 144 154 163 167 172 185 191 185 167 157 159 156 149 152 171 172 165 161 149 164 179 225 248 271 204 206

GFSSE_con_3kmhel_075.txt.gz
Helicity
52 52 56 39 36 20 10 8 16 16 11 3 -6 -1 11 10 8 8 31 43 54 52 56 44 32 18 18 6 1 5 5 1 7 9 -0 -9 1 9 10 1 11 -0 14
73 49 57 33 20 15 13 23 31 20 -6 -9 -12 18 3 7 19 28 43 45 64 59 40 21 12 7 -4 -18 -20 -15 -10 -12 -8 -11 -7 -12 2 25 32 28 17 15 21
82 41 41 36 23 20 26 19 17 -3 -12 -13 2 14 7 1 4 27 54 53 49 32 8 -6 -1 -5 -14 -29 -24 -19 -27 -42 -33 -42 -33 -25 -11 16 21 23 18 21 30
59 29 19 18 15 18 8 2 -5 -9 -10 -8 17 5 10 4 -2 -0 7 5 2 -8 -13 -18 -5 -17 -26 -38 -29 -20 -37 -43 5 19 -5 -4 -16 -3 8 16 16 24 25
32 3 -10 -2 -1 2 -7 -12 -15 -18 -16 -19 -1 -5 1 -6 -12 -14 -20 -17 -19 -20 -18 -15 -4 -11 -24 -39 -33 -9 -13 -28 -9 -0 -13 -16 -14 -3 9 13 13 24 28
18 -4 -14 -20 -20 -26 -28 -30 -25 -25 -20 -21 -13 2 -4 -5 -9 -11 -16 -17 -19 -18 -16 -9 -5 -14 -24 -39 -46 -25 -10 -1 -0 2 -4 6 -4 16 17 16 21 28 32
58 22 -7 -22 -30 -48 -57 -63 -54 -43 -31 -24 -18 -3 -10 -11 -9 -12 -16 -19 -22 -22 -20 -16 -14 -21 -26 -32 -39 -31 -14 -0 12 21 21 22 18 35 35 35 37 39 38
89 48 2 -7 -28 -38 -65 -81 -88 -84 -69 -56 -45 -15 -25 -28 -17 -19 -16 -25 -29 -31 -27 -17 -12 -7 -3 -3 -9 -13 -2 7 33 51 44 35 50 51 51 50 52 54 54
95 81 46 13 -15 -28 -51 -70 -79 -87 -106 -107 -92 -42 -50 -44 -31 -29 -22 -19 -18 -14 -13 -5 3 9 15 18 17 14 16 21 41 45 65 45 65 66 64 62 61 64 64
92 86 76 45 18 -7 -31 -36 -43 -56 -75 -71 -54 -17 -32 -25 -11 -7 -8 -3 6 13 14 19 23 28 33 36 39 37 31 27 38 56 81 58 80 79 72 66 63 64 66
63 59 66 65 40 14 -2 -13 -8 -8 4 -5 -5 -7 2 -9 -6 6 3 19 23 33 38 40 41 43 44 43 45 48 41 52 49 63 77 87 87 82 78 70 67 66 68
41 4 45 55 29 23 17 4 8 10 10 12 6 -9 -1 8 15 16 30 38 43 43 45 50 49 47 44 46 44 42 55 47 53 71 79 93 86 79 80 74 71 73 73
79 87 67 42 41 40 36 21 17 11 17 16 18 -0 7 29 58 56 42 46 51 50 43 43 40 42 39 43 40 40 43 47 56 68 75 92 82 78 72 80 72 76 77
106 74 78 54 71 53 54 55 25 26 11 7 13 25 61 58 62 62 55 45 41 45 44 44 42 44 31 28 52 47 50 55 57 63 72 88 86 76 73 65 79 76 79
129 56 53 71 72 57 65 72 75 62 42 5 29 35 82 78 71 70 47 54 42 47 56 44 42 42 41 37 46 47 45 52 52 57 77 86 97 86 74 70 63 72 84
189 177 123 76 116 84 87 75 74 91 70 68 68 75 86 98 80 65 63 54 44 57 51 64 61 53 53 59 50 51 47 53 59 74 95 109 112 109 95 80 74 68 65
141 146 152 161 135 118 91 71 90 111 88 112 97 101 98 112 91 81 71 56 51 60 55 61 53 70 70 68 58 59 62 65 72 77 89 117 127 119 117 91 73 66 61
180 158 136 76 92 106 99 94 88 107 113 127 132 127 87 93 94 84 71 57 48 54 68 78 80 81 80 82 81 68 67 68 69 89 117 119 133 140 135 121 101 58 54
123 113 110 124 106 121 104 99 72 114 124 139 152 105 75 86 75 75 64 47 58 82 90 91 88 100 94 90 83 79 75 68 68 84 101 112 126 126 153 131 106 80 65
101 113 127 107 103 96 123 116 120 135 142 153 123 106 81 77 75 82 73 66 70 81 85 105 96 102 108 100 98 104 97 93 100 100 93 89 125 146 129 164 138 95 75
98 123 131 164 123 117 129 151 140 135 110 97 91 56 52 63 72 95 93 72 81 93 92 110 121 118 118 133 120 120 119 114 124 120 119 107 118 170 161 152 126 107 118
85 93 125 121 143 142 133 131 135 116 85 72 65 68 85 100 126 114 114 113 109 117 116 126 141 132 141 135 150 140 129 122 139 119 93 100 137 188 209 189 166 150 164
101 87 101 112 125 142 138 167 172 175 148 148 97 84 118 148 162 158 154 149 147 128 107 121 141 146 145 162 152 171 168 158 148 175 185 144 164 197 200 194 186 195 215
100 81 102 140 150 141 152 193 219 207 186 144 163 181 195 187 193 197 210 179 161 139 130 134 149 155 177 162 166 188 201 220 194 187 139 135 162 160 174 196 251 259 207
232 164 163 178 212 228 207 169 214 208 193 185 196 210 200 199 180 165 169 179 174 164 171 172 173 168 182 173 167 166 172 165 171 193 179 138 155 150 190 251 284 291 211
278 244 210 188 195 194 207 209 204 193 195 204 200 196 176 166 165 169 187 189 184 187 190 187 184 175 165 164 165 157 159 167 173 169 180 167 151 144 252 360 300 280 232

GFSSE_con_3kmhel_078.txt.gz
Helicity
44 30 50 58 58 47 36 34 30 22 6 7 25 29 27 -3 13 48 45 43 45 41 54 35 29 29 23 27 12 -2 1 12 -6 -5 -7 1 21 20 22 11 5 -1 14
84 41 51 45 37 29 26 29 30 9 -18 -7 13 7 1 3 13 37 52 53 47 54 32 22 13 0 7 1 -7 -17 -22 -28 -20 -22 -15 -12 1 19 17 13 11 12 18
91 40 36 29 32 36 41 30 21 2 -22 9 7 0 11 28 43 49 65 64 42 18 13 6 -7 -9 0 -11 -26 -45 -49 -38 -24 -24 -31 -28 -15 1 4 10 14 14 19
89 43 26 36 46 35 23 21 9 -7 -16 8 8 0 3 16 44 46 41 30 7 -3 -1 -11 -21 -16 -13 -16 -34 -40 -17 6 -3 -20 -32 -26 -21 -6 0 4 5 13 17
90 49 24 26 27 17 9 5 -3 -18 -4 2 2 -2 -4 -5 0 -1 -5 -17 -12 -3 -9 -21 -28 -29 -21 -25 -23 -25 -11 1 -2 -7 -15 -14 -17 1 7 11 6 8 18
88 50 20 10 9 5 -5 -8 -14 -22 -12 -8 1 -5 -9 -13 -16 -12 -14 -23 -14 -12 -18 -29 -34 -39 -35 -32 -23 -9 -7 11 5 1 3 7 3 23 22 23 20 18 21
71 42 13 -4 -6 -16 -22 -31 -26 -32 -21 -12 -5 -9 -8 -17 -21 -26 -17 -22 -22 -27 -28 -34 -40 -38 -35 -30 -16 5 12 37 24 22 21 19 19 37 36 32 31 30 32
64 37 9 -10 -25 -31 -47 -56 -55 -54 -40 -26 -15 -20 -19 -21 -27 -32 -33 -33 -29 -27 -27 -20 -16 -13 -12 -13 -6 4 30 38 46 43 36 24 42 46 43 41 36 38 39
86 70 40 10 -16 -39 -58 -73 -83 -88 -85 -61 -33 -51 -49 -45 -45 -39 -39 -36 -27 -23 -14 -8 2 11 16 15 17 26 37 49 50 40 49 32 50 56 53 48 44 41 43
76 76 69 48 13 -17 -51 -63 -72 -92 -101 -88 -65 -62 -62 -47 -42 -38 -35 -23 -2 4 7 10 19 26 27 23 21 31 32 68 55 56 53 36 60 64 61 56 51 48 46
82 92 90 72 41 8 -19 -41 -52 -70 -76 -56 -13 -30 -41 -48 -32 -20 -23 -7 9 17 26 34 36 37 32 27 23 32 33 48 47 53 50 45 64 70 69 62 57 52 53
86 91 74 62 50 23 13 -12 -18 -20 -12 -25 -17 -15 -21 -10 -9 -6 1 11 20 28 31 34 37 42 35 35 30 31 43 41 49 56 45 53 62 64 71 67 62 59 58
164 67 30 41 47 36 33 6 1 -3 0 -9 -4 9 6 14 17 20 21 22 26 33 29 28 27 35 27 33 31 38 36 31 48 46 49 56 54 55 55 71 65 64 63
133 102 42 43 36 38 42 39 21 17 6 2 3 12 21 31 42 46 44 36 36 32 32 27 28 27 23 27 22 26 28 38 43 45 43 58 58 54 54 54 66 68 67
81 -7 60 66 26 57 64 60 60 31 16 -2 10 35 38 50 52 60 39 38 30 31 31 20 22 23 20 24 35 38 39 40 38 52 61 59 72 63 60 56 57 64 71
115 83 237 64 55 69 60 71 71 65 33 25 18 43 54 64 78 58 48 45 33 39 35 37 39 40 34 42 38 46 44 46 48 50 65 71 81 84 81 67 57 58 50
83 74 148 190 56 78 79 79 94 92 72 56 45 45 79 81 76 79 63 52 41 38 41 50 48 57 54 61 48 49 55 54 58 69 79 90 93 90 85 82 74 56 44
150 155 180 124 226 62 60 63 86 94 96 85 64 70 98 107 103 98 81 63 52 55 57 59 59 61 61 60 66 63 72 75 64 63 70 111 121 119 104 92 94 81 62
133 184 179 126 178 213 70 50 107 104 117 101 123 125 111 111 107 112 89 65 56 64 67 73 69 78 71 71 72 71 71 79 78 80 71 86 106 113 120 105 112 91 78
124 142 137 143 133 97 88 71 79 92 106 120 138 135 105 84 103 102 80 60 60 70 66 73 75 80 77 72 79 77 73 76 84 87 86 102 123 128 115 118 137 139 120
92 144 148 140 118 158 160 132 120 130 136 170 150 125 100 91 87 87 75 66 65 66 62 71 94 88 95 98 101 91 96 87 104 111 107 91 98 115 159 166 179 157 157
79 93 108 97 127 127 155 156 139 133 123 157 145 99 78 79 88 86 87 84 83 76 81 95 99 100 93 100 112 94 92 94 125 96 105 108 101 126 163 184 184 191 183
117 99 94 89 109 131 138 173 185 166 160 137 102 95 83 114 123 112 113 125 133 126 120 114 112 117 106 122 126 140 146 107 86 116 153 135 130 145 172 181 217 231 234
88 100 84 117 135 123 161 177 154 182 169 144 118 137 174 170 180 184 192 174 162 149 130 127 134 142 169 136 133 160 187 208 162 139 158 162 130 149 169 200 269 273 253
147 125 97 109 113 140 157 152 168 154 144 159 182 213 205 173 145 160 157 167 175 180 162 155 161 166 183 182 182 167 169 182 180 198 162 137 149 152 175 234 281 297 272
214 167 156 153 167 138 179 168 169 191 181 139 178 191 205 225 192 171 167 185 186 206 203 194 184 173 170 173 177 174 172 168 175 181 200 180 148 147 222 291 309 312 277